CW1648 Weather Reports


time (UTC)temp
F
wind
direction
speed
knots
gust
knots
rain 1hr
in
rain 24hr
in
rain mn
in
humidity
%
barometer
mb
20260905191455 80 306 0.0 0.0 0.00 0.00 0.00 57 1008.0
20260905191354 80 306 0.0 0.0 0.00 0.00 0.00 54 1008.1
20260905191311 80 301 0.0 0.0 0.00 0.00 0.00 56 1008.1
20260905191254 80 300 0.0 0.0 0.00 0.00 0.00 56 1008.1
20260905191153 80 24 0.0 0.0 0.00 0.00 0.00 55 1008.1
20260905191105 80 288 0.0 0.0 0.00 0.00 0.00 54 1008.1
20260905191101 80 345 0.0 0.0 0.00 0.00 0.00 55 1008.1
20260905191029 80 288 0.0 0.0 0.00 0.00 0.00 55 1008.1
20260905190851 81 288 0.0 0.0 0.00 0.00 0.00 55 1008.0
20260905190809 81 288 0.0 0.0 0.00 0.00 0.00 54 1008.0
20260905190751 81 288 0.0 0.0 0.00 0.00 0.00 54 1008.1
20260905190650 81 288 0.0 0.0 0.00 0.00 0.00 54 1008.1
20260905190550 81 288 0.0 0.0 0.00 0.00 0.00 53 1008.0
20260905190535 81 288 0.0 0.0 0.00 0.00 0.00 54 1008.0
20260905190529 81 287 0.0 0.0 0.00 0.00 0.00 53 1008.1
20260905190450 81 287 0.0 0.0 0.00 0.00 0.00 54 1008.1
20260905190418 81 288 0.0 0.0 0.00 0.00 0.00 54 1008.0
20260905190249 81 288 0.0 0.0 0.00 0.00 0.00 54 1008.0
20260905190149 81 288 0.0 0.0 0.00 0.00 0.00 52 1008.0
20260905190048 81 288 0.0 0.0 0.00 0.00 0.00 51 1007.9
20260905190030 81 360 0.0 0.0 0.00 0.00 0.00 52 1007.9
20260905185947 81 288 0.0 0.0 0.00 0.00 0.00 52 1007.9
20260905185847 81 11 0.0 0.0 0.00 0.00 0.00 53 1007.9
20260905185809 81 13 0.0 0.0 0.00 0.00 0.00 53 1007.9
20260905185746 81 13 0.0 0.0 0.00 0.00 0.00 53 1007.9
20260905185659 81 295 0.0 0.0 0.00 0.00 0.00 52 1008.0
20260905185655 81 13 0.0 0.0 0.00 0.00 0.00 53 1007.9
20260905185559 81 295 0.0 0.0 0.00 0.00 0.00 53 1008.0
20260905185458 81 294 0.0 0.0 0.00 0.00 0.00 54 1008.0
20260905185454 81 294 0.0 0.0 0.00 0.00 0.00 53 1008.0
20260905185306 81 297 0.0 0.0 0.00 0.00 0.00 54 1008.0
20260905185244 81 297 0.0 0.0 0.00 0.00 0.00 53 1008.0
20260905185143 81 318 0.0 0.0 0.00 0.00 0.00 54 1008.0
20260905185042 81 319 0.0 0.0 0.00 0.00 0.00 54 1008.0
20260905185029 81 319 0.0 0.0 0.00 0.00 0.00 53 1008.0
20260905184942 81 319 0.0 0.0 0.00 0.00 0.00 53 1008.0
20260905184842 81 319 0.0 0.0 0.00 0.00 0.00 53 1008.1
20260905184805 81 337 0.0 0.0 0.00 0.00 0.00 51 1008.1
20260905184740 81 335 0.0 0.0 0.00 0.00 0.00 53 1008.1
20260905184707 81 312 0.0 0.0 0.00 0.00 0.00 53 1008.1
20260905184701 81 271 0.0 0.0 0.00 0.00 0.00 53 1008.1
20260905184548 81 250 0.0 0.0 0.00 0.00 0.00 52 1008.1
20260905184529 81 12 0.0 0.0 0.00 0.00 0.00 53 1008.1
20260905184414 81 296 0.0 0.0 0.00 0.00 0.00 52 1008.1
20260905184239 81 312 0.0 0.0 0.00 0.00 0.00 53 1008.2
20260905184137 81 19 0.0 0.0 0.00 0.00 0.00 54 1008.1
20260905184050 81 296 0.0 0.0 0.00 0.00 0.00 53 1008.2
20260905184046 81 306 0.0 0.0 0.00 0.00 0.00 54 1008.1
20260905184029 81 296 0.0 0.0 0.00 0.00 0.00 53 1008.2
20260905183836 81 299 0.0 0.0 0.00 0.00 0.00 54 1008.2
20260905183806 81 262 0.0 0.0 0.00 0.00 0.00 55 1008.2
20260905183736 81 260 0.0 0.0 0.00 0.00 0.00 55 1008.2
20260905183634 81 261 0.0 0.0 0.00 0.00 0.00 55 1008.2
20260905183544 81 261 0.0 0.0 0.00 0.00 0.00 56 1008.2
20260905183535 81 261 0.0 0.0 0.00 0.00 0.00 56 1008.2
20260905183507 81 261 0.0 0.0 0.00 0.00 0.00 55 1008.2
20260905183503 81 261 0.0 0.0 0.00 0.00 0.00 55 1008.2
20260905183457 81 261 0.0 0.0 0.00 0.00 0.00 56 1008.2
20260905183340 81 261 0.0 0.0 0.00 0.00 0.00 55 1008.2
20260905183133 81 261 0.0 0.0 0.00 0.00 0.00 53 1008.2
20260905183100 81 236 0.0 0.0 0.00 0.00 0.00 52 1008.1
20260905183056 81 273 0.0 0.0 0.00 0.00 0.00 52 1008.0
20260905183050 81 261 0.0 0.0 0.00 0.00 0.00 53 1008.1
20260905183029 81 261 0.0 0.0 0.00 0.00 0.00 53 1008.1
20260905182803 81 273 0.0 0.0 0.00 0.00 0.00 53 1008.0
20260905182731 81 262 0.0 0.0 0.00 0.00 0.00 53 1008.0
20260905182644 81 261 0.0 0.0 0.00 0.00 0.00 52 1008.0
20260905182640 81 262 0.0 0.0 0.00 0.00 0.00 53 1008.0
20260905182530 81 261 0.0 0.0 0.00 0.00 0.00 52 1008.1
20260905182441 81 265 0.0 0.0 0.00 0.00 0.00 53 1008.1
20260905182432 81 271 0.0 0.0 0.00 0.00 0.00 53 1008.1
20260905182321 81 288 0.0 0.0 0.00 0.00 0.00 52 1008.0
20260905182315 81 265 0.0 0.0 0.00 0.00 0.00 53 1008.1
20260905182309 81 265 0.0 0.0 0.00 0.00 0.00 52 1008.1
20260905182155 81 266 0.0 0.0 0.00 0.00 0.00 51 1008.1
20260905182029 81 301 0.0 0.0 0.00 0.00 0.00 51 1008.0
20260905181803 81 302 0.0 0.0 0.00 0.00 0.00 52 1008.0
20260905181727 81 302 0.0 0.0 0.00 0.00 0.00 52 1008.0
20260905181627 81 259 0.0 0.0 0.00 0.00 0.00 53 1008.0
20260905181529 81 261 0.0 0.0 0.00 0.00 0.00 51 1008.0
20260905181527 81 261 0.0 0.0 0.00 0.00 0.00 52 1008.0
20260905181427 81 261 0.0 0.0 0.00 0.00 0.00 51 1008.0
20260905181326 81 299 0.0 0.0 0.00 0.00 0.00 53 1008.0
20260905181303 81 232 0.0 0.0 0.00 0.00 0.00 53 1008.0
20260905181226 81 239 0.0 0.0 0.00 0.00 0.00 52 1008.0
20260905181125 81 229 0.0 0.0 0.00 0.00 0.00 52 1008.0
20260905181044 81 243 0.0 0.0 0.00 0.00 0.00 51 1008.1
20260905181024 81 272 0.0 0.0 0.00 0.00 0.00 51 1008.0
20260905181003 81 257 0.0 0.0 0.00 0.00 0.00 51 1008.1
20260905180851 81 283 0.0 0.0 0.00 0.00 0.00 54 1008.0
20260905180845 81 331 0.0 0.0 0.00 0.00 0.00 54 1008.0
20260905180837 81 266 0.0 0.0 0.00 0.00 0.00 54 1008.0
20260905180530 81 283 0.0 0.0 0.00 0.00 0.00 53 1008.0
20260905180526 81 306 0.0 0.0 0.00 0.00 0.00 53 1008.0
20260905180521 81 283 0.0 0.0 0.00 0.00 0.00 52 1008.0
20260905180421 81 326 0.0 0.0 0.00 0.00 0.00 53 1008.0
20260905180409 81 326 0.0 0.0 0.00 0.00 0.00 53 1008.1
20260905180220 81 264 0.0 0.0 0.00 0.00 0.00 53 1008.0
20260905180120 82 263 0.0 0.0 0.00 0.00 0.00 52 1008.1
20260905180030 82 275 0.0 0.0 0.00 0.00 0.00 51 1008.0
20260905180019 82 275 0.0 0.0 0.00 0.00 0.00 51 1008.0
20260905175918 82 263 0.0 0.0 0.00 0.00 0.00 50 1007.9
20260905175816 82 261 0.0 0.0 0.00 0.00 0.00 53 1008.0
20260905175800 82 261 0.0 0.0 0.00 0.00 0.00 50 1008.0
20260905175729 82 263 0.0 0.0 0.00 0.00 0.00 52 1007.9
20260905175725 82 261 0.0 0.0 0.00 0.00 0.00 52 1008.0
20260905175529 82 262 0.0 0.0 0.00 0.00 0.00 53 1008.0
20260905175516 82 263 0.0 0.0 0.00 0.00 0.00 53 1008.1
20260905175416 82 262 0.0 0.0 0.00 0.00 0.00 53 1008.0
20260905175316 82 266 0.0 0.0 0.00 0.00 0.00 53 1008.1
20260905175259 82 266 0.0 0.0 0.00 0.00 0.00 52 1008.2
20260905175216 82 266 0.0 0.0 0.00 0.00 0.00 50 1008.1
20260905175116 82 266 0.0 0.0 0.00 0.00 0.00 50 1008.2
20260905175034 82 259 0.0 0.0 0.00 0.00 0.00 50 1008.2
20260905175030 82 348 0.0 0.0 0.00 0.00 0.00 51 1008.3
20260905175024 82 265 0.0 0.0 0.00 0.00 0.00 50 1008.3
20260905174905 82 259 0.0 0.0 0.00 0.00 0.00 52 1008.2
20260905174714 82 262 0.0 0.0 0.00 0.00 0.00 50 1008.2
20260905174614 82 284 0.0 0.0 0.00 0.00 0.00 50 1008.2
20260905174544 82 311 0.0 0.0 0.00 0.00 0.00 51 1008.2
20260905174513 82 336 0.0 0.0 0.00 0.00 0.00 51 1008.3
20260905174413 82 285 0.0 0.0 0.00 0.00 0.00 50 1008.3
20260905174313 82 286 0.0 0.0 0.00 0.00 0.00 51 1008.3
20260905174256 82 286 0.0 0.0 0.00 0.00 0.00 51 1008.3
20260905174211 82 288 0.0 0.0 0.00 0.00 0.00 51 1008.3
20260905174111 82 280 0.0 0.0 0.00 0.00 0.00 49 1008.3
20260905174029 82 319 0.0 0.0 0.00 0.00 0.00 51 1008.2
20260905174011 82 282 0.0 0.0 0.00 0.00 0.00 51 1008.3
20260905173910 82 267 0.0 0.0 0.00 0.00 0.00 49 1008.2
20260905173810 82 261 0.0 0.0 0.00 0.00 0.00 51 1008.1
20260905173756 82 336 0.0 0.0 0.00 0.00 0.00 51 1008.2
20260905173708 82 340 0.0 0.0 0.00 0.00 0.00 52 1008.2
20260905173626 82 238 0.0 0.0 0.00 0.00 0.00 52 1008.2
20260905173529 82 240 0.0 0.0 0.00 0.00 0.00 51 1008.3
20260905173507 82 240 0.0 0.0 0.00 0.00 0.00 51 1008.2
20260905173409 82 239 0.0 0.0 0.00 0.00 0.00 51 1008.3
20260905173400 82 236 0.0 0.0 0.00 0.00 0.00 51 1008.3
20260905173221 81 284 0.0 0.0 0.00 0.00 0.00 52 1008.3
20260905173216 81 237 0.0 0.0 0.00 0.00 0.00 52 1008.4
20260905173044 81 286 0.0 0.0 0.00 0.00 0.00 53 1008.3
20260905173006 81 288 0.0 0.0 0.00 0.00 0.00 51 1008.3
20260905172906 81 252 0.0 0.0 0.00 0.00 0.00 54 1008.3
20260905172805 81 269 0.0 0.0 0.00 0.00 0.00 54 1008.4
20260905172753 81 269 0.0 0.0 0.00 0.00 0.00 54 1008.4
20260905172705 81 284 0.0 0.0 0.00 0.00 0.00 52 1008.4
20260905172626 81 283 0.0 0.0 0.00 0.00 0.00 51 1008.4
20260905172530 81 261 0.0 0.0 0.00 0.00 0.00 54 1008.3
20260905172513 81 289 0.0 0.0 0.00 0.00 0.00 54 1008.3
20260905172305 81 275 0.0 0.0 0.00 0.00 0.00 51 1008.3
20260905172252 81 275 0.0 0.0 0.00 0.00 0.00 51 1008.3
20260905172203 81 316 0.0 0.0 0.00 0.00 0.00 51 1008.3
20260905172101 82 290 0.0 0.0 0.00 0.00 0.00 52 1008.3
20260905172029 82 268 0.0 0.0 0.00 0.00 0.00 52 1008.3
20260905172001 82 268 0.0 0.0 0.00 0.00 0.00 52 1008.3
20260905171901 81 246 0.0 0.0 0.00 0.00 0.00 53 1008.4
20260905171801 81 317 0.0 0.0 0.00 0.00 0.00 55 1008.4
20260905171752 81 329 0.0 0.0 0.00 0.00 0.00 55 1008.4
20260905171714 81 255 0.0 0.0 0.00 0.00 0.00 53 1008.4
20260905171709 81 255 0.0 0.0 0.00 0.00 0.00 53 1008.3
20260905171530 81 294 0.0 0.0 0.00 0.00 0.00 52 1008.4
20260905171459 81 294 0.0 0.0 0.00 0.00 0.00 52 1008.4
20260905171359 81 279 0.0 0.0 0.00 0.00 0.00 51 1008.3
20260905171251 81 284 0.0 0.0 0.00 0.00 0.00 51 1008.3
20260905171212 81 283 0.0 0.0 0.00 0.00 0.00 50 1008.3
20260905171207 81 281 0.0 0.0 0.00 0.00 0.00 50 1008.4
20260905171029 81 272 0.0 0.0 0.00 0.00 0.00 52 1008.4
20260905170958 81 273 0.0 0.0 0.00 0.00 0.00 52 1008.4
20260905170857 81 273 0.0 0.0 0.00 0.00 0.00 53 1008.4
20260905170751 81 273 0.0 0.0 0.00 0.00 0.00 53 1008.4
20260905170656 81 255 0.0 0.0 0.00 0.00 0.00 52 1008.5
20260905170555 81 274 0.0 0.0 0.00 0.00 0.00 51 1008.4
20260905170540 81 330 0.0 0.0 0.00 0.00 0.00 54 1008.4
20260905170534 81 323 0.0 0.0 0.00 0.00 0.00 54 1008.4
20260905170530 80 257 0.0 0.0 0.00 0.00 0.00 54 1008.4
20260905170525 81 301 0.0 0.0 0.00 0.00 0.00 51 1008.4
20260905170516 81 269 0.0 0.0 0.00 0.00 0.00 52 1008.4
20260905170052 80 257 0.0 0.0 0.00 0.00 0.00 53 1008.4
20260905170044 81 257 0.0 0.0 0.00 0.00 0.00 53 1008.3
20260905165949 80 257 0.0 0.0 0.00 0.00 0.00 53 1008.3
20260905165849 80 257 0.0 0.0 0.00 0.00 0.00 52 1008.3
20260905165750 81 260 0.0 0.0 0.00 0.00 0.00 52 1008.4
20260905165648 81 0 0.0 0.0 0.00 0.00 0.00 52 1008.4
20260905165548 81 329 0.0 0.0 0.00 0.00 0.00 53 1008.4
20260905165529 81 296 0.0 0.0 0.00 0.00 0.00 57 1008.4
20260905165514 80 277 0.0 0.0 0.00 0.00 0.00 56 1008.4
20260905165447 81 302 0.0 0.0 0.00 0.00 0.00 57 1008.4
20260905165401 81 278 0.0 0.0 0.00 0.00 0.00 57 1008.3
20260905165246 80 277 0.0 0.0 0.00 0.00 0.00 56 1008.4
20260905165200 80 309 0.0 0.0 0.00 0.00 0.00 54 1008.4
20260905165155 80 277 0.0 0.0 0.00 0.00 0.00 56 1008.3
20260905165030 80 266 0.0 0.0 0.00 0.00 0.00 54 1008.4
20260905165013 80 9 0.0 0.0 0.00 0.00 0.00 55 1008.4
20260905164945 80 336 0.0 0.0 0.00 0.00 0.00 54 1008.4
20260905164859 80 350 0.0 0.0 0.00 0.00 0.00 56 1008.5
20260905164744 80 9 0.0 0.0 0.00 0.00 0.00 55 1008.4
20260905164644 80 9 0.0 0.0 0.00 0.00 0.00 52 1008.4
20260905164557 80 303 0.0 0.0 0.00 0.00 0.00 55 1008.6
20260905164552 80 290 0.0 0.0 0.00 0.00 0.00 54 1008.5
20260905164529 80 303 0.0 0.0 0.00 0.00 0.00 55 1008.6
20260905164357 80 324 0.0 0.0 0.00 0.00 0.00 55 1008.6
20260905164348 80 324 0.0 0.0 0.00 0.00 0.00 54 1008.6
20260905164142 80 324 0.0 0.0 0.00 0.00 0.00 54 1008.6
20260905164040 80 70 0.0 0.0 0.00 0.00 0.00 55 1008.6
20260905164029 80 70 0.0 0.0 0.00 0.00 0.00 54 1008.7
20260905163939 80 70 0.0 0.0 0.00 0.00 0.00 54 1008.7
20260905163838 79 254 0.0 0.0 0.00 0.00 0.00 55 1008.7
20260905163738 79 252 0.0 0.0 0.00 0.00 0.00 55 1008.7
20260905163637 79 252 0.0 0.0 0.00 0.00 0.00 54 1008.7
20260905163537 79 252 0.0 0.0 0.00 0.00 0.00 55 1008.7
20260905163530 79 251 0.0 0.0 0.00 0.00 0.00 56 1008.7
20260905163437 79 286 0.0 0.0 0.00 0.00 0.00 56 1008.7
20260905163337 79 291 0.0 0.0 0.00 0.00 0.00 56 1008.7
20260905163236 79 224 0.0 0.0 0.00 0.00 0.00 55 1008.7
20260905163135 79 277 0.0 0.0 0.00 0.00 0.00 55 1008.6
20260905163055 79 278 0.0 0.0 0.00 0.00 0.00 54 1008.6
20260905163029 79 277 0.0 0.0 0.00 0.00 0.00 53 1008.7
20260905162941 79 288 0.0 0.0 0.00 0.00 0.00 53 1008.7
20260905162741 80 294 0.0 0.0 0.00 0.00 0.00 52 1008.6
20260905162732 80 23 0.0 0.0 0.00 0.00 0.00 52 1008.6
20260905162645 80 323 0.0 0.0 0.00 0.00 0.00 54 1008.7
20260905162640 80 24 0.0 0.0 0.00 0.00 0.00 53 1008.7
20260905162530 80 309 0.0 0.0 0.00 0.00 0.00 52 1008.7
20260905162431 80 271 0.0 0.0 0.00 0.00 0.00 52 1008.7
20260905162330 80 300 0.0 0.0 0.00 0.00 0.00 53 1008.7
20260905162239 80 325 0.0 0.0 0.00 0.00 0.00 53 1008.8
20260905162230 80 269 0.0 0.0 0.00 0.00 0.00 52 1008.8
20260905162142 80 300 0.0 0.0 0.00 0.00 0.00 52 1008.9
20260905162137 80 319 0.0 0.0 0.00 0.00 0.00 52 1008.9
20260905162029 80 312 0.0 0.0 0.00 0.00 0.00 53 1008.8
20260905161928 80 331 0.0 0.0 0.00 0.00 0.00 53 1008.8
20260905161827 80 34 0.0 0.0 0.00 0.00 0.00 53 1008.8
20260905161810 80 153 0.0 0.0 0.00 0.00 0.00 54 1008.9
20260905161805 80 355 0.0 0.0 0.00 0.00 0.00 53 1008.8
20260905161758 80 355 0.0 0.0 0.00 0.00 0.00 55 1008.8
20260905161535 80 11 0.0 0.0 0.00 0.00 0.00 54 1008.7
20260905161529 80 17 0.0 0.0 0.00 0.00 0.00 54 1008.7
20260905161325 80 123 0.0 0.0 0.00 0.00 0.00 55 1008.7
20260905161245 80 61 0.0 0.0 0.00 0.00 0.00 54 1008.7
20260905161241 80 86 0.0 0.0 0.00 0.00 0.00 55 1008.7
20260905161234 80 36 0.0 0.0 0.00 0.00 0.00 55 1008.7
20260905161107 80 315 0.0 0.0 0.00 0.00 0.00 57 1006.5
20260905161101 80 279 0.0 0.0 0.00 0.00 0.00 54 1008.7
20260905161029 80 278 0.0 0.0 0.00 0.00 0.00 54 1006.5
20260905160947 80 296 0.0 0.0 0.00 0.00 0.00 55 1006.5
20260905160830 80 67 0.0 0.0 0.00 0.00 0.00 57 1006.5
20260905160623 80 317 0.0 0.0 0.00 0.00 0.00 56 1006.2
20260905160559 80 360 0.0 0.0 0.00 0.00 0.00 56 1005.7
20260905160523 80 286 0.0 0.0 0.00 0.00 0.00 56 1005.7
20260905160435 80 283 0.0 0.0 0.00 0.00 0.00 56 1005.7
20260905160430 80 0 0.0 0.0 0.00 0.00 0.00 54 1005.7
20260905160238 79 236 0.0 0.0 0.00 0.00 0.00 55 1005.8
20260905160221 79 281 0.0 0.0 0.00 0.00 0.00 55 1005.8
20260905160120 79 342 0.0 0.0 0.00 0.00 0.00 56 1005.8
20260905160046 79 284 0.0 0.0 0.00 0.00 0.00 57 1005.6
20260905160044 79 281 0.0 0.0 0.00 0.00 0.00 58 1005.6
20260905160041 79 286 0.0 0.0 0.00 0.00 0.00 56 1005.5
20260905160036 79 283 0.0 0.0 0.00 0.00 0.00 58 1005.6
20260905155740 79 286 0.0 0.0 0.00 0.00 0.00 54 1005.2
20260905155627 79 333 0.0 0.0 0.00 0.00 0.00 55 1005.2
20260905155529 79 315 0.0 0.0 0.00 0.00 0.00 57 1005.2
20260905155417 79 310 0.0 0.0 0.00 0.00 0.00 59 1005.1
20260905155344 79 315 0.0 0.0 0.00 0.00 0.00 57 1005.0
20260905155336 79 321 0.0 0.0 0.00 0.00 0.00 57 1005.1
20260905155225 79 321 0.0 0.0 0.00 0.00 0.00 57 1005.1
20260905155029 79 349 0.0 0.0 0.00 0.00 0.00 57 1004.9
20260905155015 79 313 0.0 0.0 0.00 0.00 0.00 55 1004.8
20260905154957 79 275 0.0 0.0 0.00 0.00 0.00 56 1004.7
20260905154915 79 327 0.0 0.0 0.00 0.00 0.00 56 1004.8
20260905154844 79 327 0.0 0.0 0.00 0.00 0.00 56 1004.7
20260905154730 79 19 0.0 0.0 0.00 0.00 0.00 55 1004.6
20260905154725 79 290 0.0 0.0 0.00 0.00 0.00 56 1004.7
20260905154559 79 326 0.0 0.0 0.00 0.00 0.00 55 1004.7
20260905154514 79 355 0.0 0.0 0.00 0.00 0.00 55 1004.7
20260905154428 79 19 0.0 0.0 0.00 0.00 0.00 57 1004.4
20260905154422 79 283 0.0 0.0 0.00 0.00 0.00 56 1004.6
20260905154213 79 22 0.0 0.0 0.00 0.00 0.00 57 1004.2
20260905154113 79 24 0.0 0.0 0.00 0.00 0.00 59 1004.2
20260905154029 79 342 0.0 0.0 0.00 0.00 0.00 58 1004.3
20260905154026 79 333 0.0 0.0 0.00 0.00 0.00 57 1004.2
20260905154021 79 342 0.0 0.0 0.00 0.00 0.00 58 1004.2
20260905153812 79 336 0.0 0.0 0.00 0.00 0.00 57 1004.0
20260905153731 79 277 0.0 0.0 0.00 0.00 0.00 57 1003.8
20260905153712 79 308 0.0 0.0 0.00 0.00 0.00 58 1003.8
20260905153610 79 321 0.0 0.0 0.00 0.00 0.00 58 1004.0
20260905153529 79 321 0.0 0.0 0.00 0.00 0.00 58 1003.8
20260905153509 79 321 0.0 0.0 0.00 0.00 0.00 58 1004.0
20260905153409 79 343 0.0 0.0 0.00 0.00 0.00 56 1003.7
20260905153307 79 313 0.0 0.0 0.00 0.00 0.00 56 1003.5
20260905153230 79 268 0.0 0.0 0.00 0.00 0.00 56 1003.8
20260905153208 79 267 0.0 0.0 0.00 0.00 0.00 56 1003.8
20260905153106 79 290 0.0 0.0 0.00 0.00 0.00 57 1003.6
20260905153029 79 343 0.0 0.0 0.00 0.00 0.00 56 1005.3
20260905153007 79 294 0.0 0.0 0.00 0.00 0.00 56 1003.6
20260905152906 79 310 0.0 0.0 0.00 0.00 0.00 56 1005.2
20260905152808 79 259 0.0 0.0 0.00 0.00 0.00 57 1005.2
20260905152727 79 5 0.0 0.0 0.00 0.00 0.00 56 1004.5
20260905152706 79 328 0.0 0.0 0.00 0.00 0.00 56 1004.5
20260905152620 79 290 0.0 0.0 0.00 0.00 0.00 57 1004.2
20260905152614 79 274 0.0 0.0 0.00 0.00 0.00 57 1004.5
20260905152530 79 290 0.0 0.0 0.00 0.00 0.00 57 1004.0
20260905152406 79 325 0.0 0.0 0.00 0.00 0.00 56 1003.9
20260905152306 79 283 0.0 0.0 0.00 0.00 0.00 56 1003.9
20260905152227 79 256 0.0 0.0 0.00 0.00 0.00 58 1003.9
20260905152219 79 273 0.0 0.0 0.00 0.00 0.00 58 1003.2
20260905152213 79 324 0.0 0.0 0.00 0.00 0.00 58 1003.7
20260905152030 79 340 0.0 0.0 0.00 0.00 0.00 57 1003.1
20260905152004 79 340 0.0 0.0 0.00 0.00 0.00 57 1003.0
20260905151903 79 26 0.0 0.0 0.00 0.00 0.00 56 1008.9
20260905151803 79 294 0.0 0.0 0.00 0.00 0.00 56 1008.9
20260905151727 79 296 0.0 0.0 0.00 0.00 0.00 58 1008.9
20260905151702 79 271 0.0 0.0 0.00 0.00 0.00 58 1008.7
20260905151603 79 240 0.0 0.0 0.00 0.00 0.00 58 1003.7
20260905151559 79 292 0.0 0.0 0.00 0.00 0.00 58 1003.8
20260905151517 79 274 0.0 0.0 0.00 0.00 0.00 58 1003.7
20260905151511 79 292 0.0 0.0 0.00 0.00 0.00 58 1003.7
20260905151303 79 317 0.0 0.0 0.00 0.00 0.00 57 1008.5
20260905151225 79 249 0.0 0.0 0.00 0.00 0.00 57 1008.5
20260905151201 79 318 0.0 0.0 0.00 0.00 0.00 57 1008.5
20260905151101 79 279 0.0 0.0 0.00 0.00 0.00 58 1008.5
20260905151029 79 282 0.0 0.0 0.00 0.00 0.00 59 1008.5
20260905151000 78 282 0.0 0.0 0.00 0.00 0.00 57 1008.5
20260905150901 78 297 0.0 0.0 0.00 0.00 0.00 58 1003.9
20260905150800 78 305 0.0 0.0 0.00 0.00 0.00 59 1003.9
20260905150727 78 299 0.0 0.0 0.00 0.00 0.00 60 1003.9
20260905150700 78 326 0.0 0.0 0.00 0.00 0.00 60 1003.4
20260905150559 78 294 0.0 0.0 0.00 0.00 0.00 60 1002.7
20260905150529 78 277 0.0 0.0 0.00 0.00 0.00 61 1002.8
20260905150520 78 281 0.0 0.0 0.00 0.00 0.00 61 1002.7
20260905150407 78 276 0.0 0.0 0.00 0.00 0.00 63 1002.7
20260905150224 77 294 0.0 0.0 0.00 0.00 0.00 63 1006.1
20260905150157 77 298 0.0 0.0 0.00 0.00 0.00 62 1006.1
20260905150057 77 311 0.0 0.0 0.00 0.00 0.00 63 1006.1
20260905150030 77 348 0.0 0.0 0.00 0.00 0.00 64 1003.7
20260905150010 77 348 0.0 0.0 0.00 0.00 0.00 63 1003.6
20260905150005 77 348 0.0 0.0 0.00 0.00 0.00 64 1003.6
20260905145811 77 348 0.0 0.0 0.00 0.00 0.00 60 1003.1
20260905145759 77 348 0.0 0.0 0.00 0.00 0.00 61 1003.6
20260905145553 77 0 0.0 0.0 0.00 0.00 0.00 62 1003.4
20260905145529 77 355 0.0 0.0 0.00 0.00 0.00 61 1002.9
20260905145506 77 351 0.0 0.0 0.00 0.00 0.00 60 1003.7
20260905145502 77 351 0.0 0.0 0.00 0.00 0.00 61 1002.8
20260905145251 77 227 0.0 0.0 0.00 0.00 0.00 62 1003.7
20260905145220 77 11 0.0 0.0 0.00 0.00 0.00 62 1003.7
20260905145150 77 0 0.0 0.0 0.00 0.00 0.00 62 1003.9
20260905145050 77 299 0.0 0.0 0.00 0.00 0.00 61 1004.4
20260905145030 77 320 0.0 0.0 0.00 0.00 0.00 62 1004.5
20260905144950 77 320 0.0 0.0 0.00 0.00 0.00 62 1004.4
20260905144849 77 320 0.0 0.0 0.00 0.00 0.00 61 1004.6
20260905144749 77 313 0.0 0.0 0.00 0.00 0.00 61 1004.0
20260905144721 77 317 0.0 0.0 0.00 0.00 0.00 61 1004.0
20260905144649 77 287 0.0 0.0 0.00 0.00 0.00 62 1003.9
20260905144549 77 335 0.0 0.0 0.00 0.00 0.00 63 1003.2
20260905144529 77 273 0.0 0.0 0.00 0.00 0.00 63 1003.6
20260905144449 77 273 0.0 0.0 0.00 0.00 0.00 63 1003.5
20260905144348 77 271 0.0 0.0 0.00 0.00 0.00 64 1004.1
20260905144248 77 295 0.0 0.0 0.00 0.00 0.00 63 1003.8
20260905144220 77 304 0.0 0.0 0.00 0.00 0.00 64 1003.8
20260905144147 77 45 0.0 0.0 0.00 0.00 0.00 64 1003.8
20260905144047 77 119 0.0 0.0 0.00 0.00 0.00 64 1003.5
20260905144029 77 119 0.0 0.0 0.00 0.00 0.00 63 1003.4
20260905143947 77 119 0.0 0.0 0.00 0.00 0.00 63 1003.3
20260905143845 77 71 0.0 0.0 0.00 0.00 0.00 64 1003.5
20260905143719 77 305 0.0 0.0 0.00 0.00 0.00 64 1003.7
20260905143645 77 305 0.0 0.0 0.00 0.00 0.00 64 1003.2
20260905143557 77 348 0.0 0.0 0.00 0.00 0.00 64 1003.2
20260905143553 77 306 0.0 0.0 0.00 0.00 0.00 64 1003.2
20260905143529 77 329 0.0 0.0 0.00 0.00 0.00 64 1003.3
20260905143437 76 316 0.0 0.0 0.00 0.00 0.00 65 1003.4
20260905143344 76 321 0.0 0.0 0.00 0.00 0.00 65 1003.1
20260905143326 76 316 0.0 0.0 0.00 0.00 0.00 65 1003.4
20260905143155 76 317 0.0 0.0 0.00 0.00 0.00 64 1004.0
20260905143151 76 316 0.0 0.0 0.00 0.00 0.00 65 1003.4
20260905143030 76 317 0.0 0.0 0.00 0.00 0.00 64 1003.3
20260905142958 76 303 0.0 0.0 0.00 0.00 0.00 66 1003.2
20260905142954 76 302 0.0 0.0 0.00 0.00 0.00 65 1003.2
20260905142949 76 317 0.0 0.0 0.00 0.00 0.00 67 1003.2
20260905142825 76 302 0.0 0.0 0.00 0.00 0.00 65 1003.2
20260905142638 76 302 0.0 0.0 0.00 0.00 0.00 65 1003.2
20260905142536 76 302 0.0 0.0 0.00 0.00 0.00 64 1003.2
20260905142530 76 313 0.0 0.0 0.00 0.00 0.00 65 1003.3
20260905142435 76 347 0.0 0.0 0.00 0.00 0.00 67 1003.2
20260905142335 76 281 0.0 0.0 0.00 0.00 0.00 67 1003.3
20260905142236 76 21 0.0 0.0 0.00 0.00 0.00 69 1003.6
20260905142216 76 21 0.0 0.0 0.00 0.00 0.00 69 1003.6
20260905142133 76 21 0.0 0.0 0.00 0.00 0.00 68 1003.4
20260905142033 75 22 0.0 0.0 0.00 0.00 0.00 67 1003.2
20260905142029 75 350 0.0 0.0 0.00 0.00 0.00 68 1004.7
20260905141932 75 350 0.0 0.0 0.00 0.00 0.00 68 1004.6
20260905141832 75 344 0.0 0.0 0.00 0.00 0.00 67 1004.6
20260905141732 75 344 0.0 0.0 0.00 0.00 0.00 68 1004.2
20260905141715 75 323 0.0 0.0 0.00 0.00 0.00 68 1004.2
20260905141631 75 269 0.0 0.0 0.00 0.00 0.00 69 1003.6
20260905141531 75 269 0.0 0.0 0.00 0.00 0.00 69 1003.3
20260905141529 75 269 0.0 0.0 0.00 0.00 0.00 68 1006.4
20260905141431 75 36 0.0 0.0 0.00 0.00 0.00 68 1006.4
20260905141329 75 328 0.0 0.0 0.00 0.00 0.00 70 1006.4
20260905141227 75 340 0.0 0.0 0.00 0.00 0.00 69 1006.4
20260905141214 75 340 0.0 0.0 0.00 0.00 0.00 69 1006.4
20260905141126 75 341 0.0 0.0 0.00 0.00 0.00 69 1005.9
20260905141030 75 342 0.0 0.0 0.00 0.00 0.00 69 1004.5
20260905141026 75 341 0.0 0.0 0.00 0.00 0.00 71 1005.9
20260905140925 75 342 0.0 0.0 0.00 0.00 0.00 68 1004.4
20260905140824 75 342 0.0 0.0 0.00 0.00 0.00 67 1004.4
20260905140715 75 78 0.0 0.0 0.00 0.00 0.00 68 1004.4
20260905140621 75 80 0.0 0.0 0.00 0.00 0.00 67 1007.1
20260905140530 75 342 0.0 0.0 0.00 0.00 0.00 67 1007.7
20260905140521 75 342 0.0 0.0 0.00 0.00 0.00 67 1007.1
20260905140421 75 11 0.0 0.0 0.00 0.00 0.00 67 1007.6
20260905140320 75 355 0.0 0.0 0.00 0.00 0.00 69 1008.1
20260905140212 75 269 0.0 0.0 0.00 0.00 0.00 68 1008.0
20260905140132 75 30 0.0 0.0 0.00 0.00 0.00 68 1007.3
20260905140128 75 293 0.0 0.0 0.00 0.00 0.00 68 1007.9
20260905140044 75 317 0.0 0.0 0.00 0.00 0.00 68 1007.3
20260905135930 75 328 0.0 0.0 0.00 0.00 0.00 67 1006.6
20260905135926 75 317 0.0 0.0 0.00 0.00 0.00 68 1007.3
20260905135712 75 298 0.0 0.0 0.00 0.00 0.00 69 1004.3
20260905135616 75 53 0.0 0.0 0.00 0.00 0.00 71 1004.3
20260905135544 75 53 0.0 0.0 0.00 0.00 0.00 70 1003.9
20260905135515 75 53 0.0 0.0 0.00 0.00 0.00 70 1004.3
20260905135414 75 49 0.0 0.0 0.00 0.00 0.00 71 1003.8
20260905135313 75 309 0.0 0.0 0.00 0.00 0.00 70 1003.6
20260905135214 75 309 0.0 0.0 0.00 0.00 0.00 70 1003.9
20260905135112 75 336 0.0 0.0 0.00 0.00 0.00 70 1003.5
20260905135030 75 336 0.0 0.0 0.00 0.00 0.00 69 1005.5
20260905135012 75 336 0.0 0.0 0.00 0.00 0.00 69 1005.5
20260905134938 75 319 0.0 0.0 0.00 0.00 0.00 70 1005.5
20260905134825 75 0 0.0 0.0 0.00 0.00 0.00 71 1006.4
20260905134711 75 324 0.0 0.0 0.00 0.00 0.00 71 1006.4
20260905134610 75 313 0.0 0.0 0.00 0.00 0.00 71 1005.9
20260905134530 75 313 0.0 0.0 0.00 0.00 0.00 74 1006.7
20260905134507 75 313 0.0 0.0 0.00 0.00 0.00 74 1006.3
20260905134406 75 355 0.0 0.0 0.00 0.00 0.00 74 1006.7
20260905134306 75 351 0.0 0.0 0.00 0.00 0.00 72 1006.7
20260905134212 75 355 0.0 0.0 0.00 0.00 0.00 72 1006.7
20260905134206 75 322 0.0 0.0 0.00 0.00 0.00 72 1006.4
20260905134105 75 313 0.0 0.0 0.00 0.00 0.00 73 1005.9
20260905134030 75 319 0.0 0.0 0.00 0.00 0.00 74 1006.1
20260905134019 75 22 0.0 0.0 0.00 0.00 0.00 74 1006.1
20260905134015 75 319 0.0 0.0 0.00 0.00 0.00 74 1005.9
20260905133825 74 5 0.0 0.0 0.00 0.00 0.00 72 1005.8
20260905133819 75 5 0.0 0.0 0.00 0.00 0.00 73 1005.1
20260905133810 74 9 0.0 0.0 0.00 0.00 0.00 72 1005.1
20260905133604 74 338 0.0 0.0 0.00 0.00 0.00 73 1005.8
20260905133530 74 331 0.0 0.0 0.00 0.00 0.00 73 1005.7
20260905133527 74 286 0.0 0.0 0.00 0.00 0.00 73 1004.6
20260905133503 74 331 0.0 0.0 0.00 0.00 0.00 73 1005.7
20260905133432 74 286 0.0 0.0 0.00 0.00 0.00 73 1004.6
20260905133427 74 333 0.0 0.0 0.00 0.00 0.00 73 1004.6
20260905133417 74 287 0.0 0.0 0.00 0.00 0.00 73 1004.6
20260905133102 74 286 0.0 0.0 0.00 0.00 0.00 73 1005.0
20260905133030 74 286 0.0 0.0 0.00 0.00 0.00 72 1004.6
20260905133002 74 286 0.0 0.0 0.00 0.00 0.00 72 1004.5
20260905132938 74 68 0.0 0.0 0.00 0.00 0.00 73 1004.8
20260905132901 74 272 0.0 0.0 0.00 0.00 0.00 72 1005.2
20260905132815 74 272 0.0 0.0 0.00 0.00 0.00 73 1004.8
20260905132658 74 68 0.0 0.0 0.00 0.00 0.00 73 1004.8
20260905132558 74 270 0.0 0.0 0.00 0.00 0.00 72 1007.4
20260905132529 74 269 0.0 0.0 0.00 0.00 0.00 73 1007.5
20260905132457 74 269 0.0 0.0 0.00 0.00 0.00 74 1007.4
20260905132411 74 321 0.0 0.0 0.00 0.00 0.00 75 1007.2
20260905132406 74 333 0.0 0.0 0.00 0.00 0.00 75 1007.4
20260905132206 74 350 0.0 0.0 0.00 0.00 0.00 75 1007.2
20260905132156 74 214 0.0 0.0 0.00 0.00 0.00 75 1007.5
20260905132110 74 213 0.0 0.0 0.00 0.00 0.00 76 1005.9
20260905132104 74 214 0.0 0.0 0.00 0.00 0.00 75 1007.5
20260905132030 74 213 0.0 0.0 0.00 0.00 0.00 76 1006.0
20260905131855 74 211 0.0 0.0 0.00 0.00 0.00 76 1005.9
20260905131754 74 275 0.0 0.0 0.00 0.00 0.00 77 1005.9
20260905131706 74 250 0.0 0.0 0.00 0.00 0.00 76 1005.9
20260905131655 73 207 0.0 0.0 0.00 0.00 0.00 76 1006.3
20260905131553 73 273 0.0 0.0 0.00 0.00 0.00 76 1007.1
20260905131529 73 273 0.0 0.0 0.00 0.00 0.00 76 1007.2
20260905131453 73 273 0.0 0.0 0.00 0.00 0.00 76 1007.1
20260905131353 73 273 0.0 0.0 0.00 0.00 0.00 77 1006.1
20260905131252 73 281 0.0 0.0 0.00 0.00 0.00 77 1006.1
20260905131206 73 281 0.0 0.0 0.00 0.00 0.00 77 1006.1
20260905131151 73 281 0.0 0.0 0.00 0.00 0.00 77 1006.5
20260905131050 73 269 0.0 0.0 0.00 0.00 0.00 78 1007.0
20260905131030 73 269 0.0 0.0 0.00 0.00 0.00 78 1007.1
20260905130950 73 269 0.0 0.0 0.00 0.00 0.00 78 1007.0
20260905130850 73 269 0.0 0.0 0.00 0.00 0.00 78 1007.0
20260905130810 72 269 0.0 0.0 0.00 0.00 0.00 79 1007.3
20260905130805 72 269 0.0 0.0 0.00 0.00 0.00 78 1007.3
20260905130756 72 269 0.0 0.0 0.00 0.00 0.00 78 1007.3
20260905130611 72 269 0.0 0.0 0.00 0.00 0.00 79 1007.5
20260905130530 72 269 0.0 0.0 0.00 0.01 0.00 78 1007.9
20260905130457 72 269 0.0 0.0 0.00 0.00 0.00 78 1007.9
20260905130307 72 263 0.0 0.0 0.00 0.00 0.00 79 1007.9
20260905130301 72 263 0.0 0.0 0.00 0.00 0.00 78 1007.9
20260905130254 72 263 0.0 0.0 0.00 0.00 0.00 78 1007.9
20260905130046 72 263 0.0 0.0 0.00 0.00 0.00 80 1008.0
20260905130030 72 262 0.0 0.0 0.00 0.01 0.00 79 1008.1
20260905125946 72 262 0.0 0.0 0.00 0.00 0.00 79 1008.1
20260905125844 72 262 0.0 0.0 0.00 0.00 0.00 79 1008.3
20260905125743 72 262 0.0 0.0 0.00 0.00 0.00 79 1008.3
20260905125704 72 263 0.0 0.0 0.00 0.00 0.00 79 1008.4
20260905125642 72 263 0.0 0.0 0.00 0.00 0.00 79 1008.4
20260905125542 72 263 0.0 0.0 0.00 0.00 0.00 79 1008.4
20260905125530 72 263 0.0 0.0 0.00 0.01 0.00 80 1008.5
20260905125442 71 263 0.0 0.0 0.00 0.00 0.00 80 1008.4
20260905125341 71 263 0.0 0.0 0.00 0.00 0.00 80 1008.4
20260905125241 71 263 0.0 0.0 0.00 0.00 0.00 81 1008.5
20260905125204 71 263 0.0 0.0 0.00 0.00 0.00 82 1008.5
20260905125140 71 262 0.0 0.0 0.00 0.00 0.00 82 1008.5
20260905125039 71 262 0.0 0.0 0.00 0.00 0.00 82 1008.6
20260905125029 71 262 0.0 0.0 0.00 0.01 0.00 82 1008.6
20260905124939 71 262 0.0 0.0 0.00 0.00 0.00 82 1008.6
20260905124912 71 262 0.0 0.0 0.00 0.00 0.00 82 1008.5
20260905124908 71 262 0.0 0.0 0.00 0.00 0.00 83 1008.4
20260905124902 71 262 0.0 0.0 0.00 0.00 0.00 82 1008.6
20260905124745 71 262 0.0 0.0 0.00 0.00 0.00 83 1008.4
20260905124552 71 262 0.0 0.0 0.00 0.00 0.00 83 1008.4
20260905124547 71 262 0.0 0.0 0.00 0.00 0.00 82 1008.4
20260905124530 71 262 0.0 0.0 0.00 0.01 0.00 82 1008.4
20260905124336 71 262 0.0 0.0 0.00 0.00 0.00 83 1008.4
20260905124236 71 262 0.0 0.0 0.00 0.00 0.00 83 1008.6
20260905124202 71 262 0.0 0.0 0.00 0.00 0.00 83 1008.6
20260905124136 71 262 0.0 0.0 0.00 0.00 0.00 83 1008.6
20260905124047 71 262 0.0 0.0 0.00 0.00 0.00 83 1008.7
20260905124030 71 262 0.0 0.0 0.00 0.01 0.00 83 1008.8
20260905123934 70 262 0.0 0.0 0.00 0.00 0.00 83 1008.8
20260905123926 70 262 0.0 0.0 0.00 0.00 0.00 83 1008.9
20260905123919 70 262 0.0 0.0 0.00 0.00 0.00 83 1008.9
20260905123633 70 262 0.0 0.0 0.00 0.00 0.00 83 1009.0
20260905123545 70 262 0.0 0.0 0.00 0.00 0.00 83 1008.9
20260905123535 70 262 0.0 0.0 0.00 0.00 0.00 84 1009.0
20260905123530 70 262 0.0 0.0 0.00 0.01 0.00 84 1009.0
20260905123424 70 262 0.0 0.0 0.00 0.00 0.00 84 1009.0
20260905123417 70 262 0.0 0.0 0.00 0.00 0.00 84 1009.0
20260905123145 70 262 0.0 0.0 0.00 0.00 0.00 84 1008.8
20260905123139 70 262 0.0 0.0 0.00 0.00 0.00 84 1008.9
20260905123044 70 262 0.0 0.0 0.00 0.01 0.00 84 1008.7
20260905122930 70 262 0.0 0.0 0.00 0.00 0.00 84 1008.7
20260905122830 70 264 0.0 0.0 0.00 0.00 0.00 84 1008.8
20260905122729 70 264 0.0 0.0 0.00 0.00 0.00 85 1008.9
20260905122629 69 264 0.0 0.0 0.00 0.00 0.00 85 1008.9
20260905122530 70 264 0.0 0.0 0.00 0.01 0.00 86 1009.1
20260905122428 69 264 0.0 0.0 0.00 0.00 0.00 86 1009.1
20260905122327 69 264 0.0 0.0 0.00 0.00 0.00 86 1009.1
20260905122226 69 263 0.0 0.0 0.00 0.00 0.00 86 1009.1
20260905122159 69 263 0.0 0.0 0.00 0.00 0.00 86 1009.2
20260905122126 69 263 0.0 0.0 0.00 0.00 0.00 87 1009.2
20260905122102 69 263 0.0 0.0 0.00 0.00 0.00 88 1009.2
20260905122057 69 263 0.0 0.0 0.00 0.00 0.00 87 1009.2
20260905122030 69 263 0.0 0.0 0.00 0.01 0.00 87 1009.2
20260905121834 69 263 0.0 0.0 0.00 0.00 0.00 88 1009.2
20260905121657 69 263 0.0 0.0 0.00 0.00 0.00 87 1009.2
20260905121625 69 263 0.0 0.0 0.00 0.00 0.00 88 1009.2
20260905121529 69 263 0.0 0.0 0.00 0.01 0.00 87 1009.1
20260905121524 69 263 0.0 0.0 0.00 0.00 0.00 87 1009.2
20260905121424 69 263 0.0 0.0 0.00 0.00 0.00 87 1009.1
20260905121323 69 263 0.0 0.0 0.00 0.00 0.00 88 1009.0
20260905121223 69 263 0.0 0.0 0.00 0.00 0.00 88 1009.0
20260905121155 69 263 0.0 0.0 0.00 0.00 0.00 88 1009.1
20260905121124 69 263 0.0 0.0 0.00 0.00 0.00 89 1009.2
20260905121029 69 263 0.0 0.0 0.00 0.01 0.00 89 1009.1
20260905121024 69 263 0.0 0.0 0.00 0.00 0.00 89 1009.1
20260905120923 69 263 0.0 0.0 0.00 0.00 0.00 89 1009.1
20260905120824 69 263 0.0 0.0 0.00 0.00 0.00 90 1009.1
20260905120723 69 263 0.0 0.0 0.00 0.00 0.00 90 1009.0
20260905120655 69 263 0.0 0.0 0.00 0.00 0.00 89 1009.0
20260905120623 69 263 0.0 0.0 0.00 0.00 0.00 89 1009.0
20260905120529 69 263 0.0 0.0 0.00 0.01 0.00 90 1009.1
20260905120523 69 263 0.0 0.0 0.00 0.00 0.00 90 1009.0
20260905120440 69 263 0.0 0.0 0.00 0.00 0.00 90 1009.0
20260905120436 69 263 0.0 0.0 0.00 0.00 0.00 90 1009.1
20260905120431 69 263 0.0 0.0 0.00 0.00 0.00 90 1009.0
20260905120302 69 263 0.0 0.0 0.00 0.00 0.00 90 1009.1
20260905120119 69 263 0.0 0.0 0.00 0.00 0.00 90 1009.1
20260905120030 69 263 0.0 0.0 0.00 0.01 0.00 91 1009.2
20260905120019 69 263 0.0 0.0 0.00 0.00 0.00 91 1009.1
20260905115931 69 263 0.0 0.0 0.00 0.00 0.00 90 1009.0
20260905115926 69 263 0.0 0.0 0.00 0.00 0.00 90 1009.1
20260905115716 69 263 0.0 0.0 0.00 0.00 0.00 90 1009.0
20260905115655 69 263 0.0 0.0 0.00 0.00 0.00 90 1009.0
20260905115616 69 263 0.0 0.0 0.00 0.00 0.00 90 1009.0
20260905115530 69 263 0.0 0.0 0.00 0.01 0.00 89 1009.2
20260905115516 69 263 0.0 0.0 0.00 0.00 0.00 89 1009.1
20260905115415 69 263 0.0 0.0 0.00 0.00 0.00 89 1009.1
20260905115314 69 263 0.0 0.0 0.00 0.00 0.00 89 1009.1
20260905115215 69 263 0.0 0.0 0.00 0.00 0.00 89 1009.1
20260905115153 69 263 0.0 0.0 0.00 0.00 0.00 89 1009.1
20260905115114 69 263 0.0 0.0 0.00 0.00 0.00 89 1009.1
20260905115030 69 263 0.0 0.0 0.00 0.01 0.00 89 1009.2
20260905115013 69 263 0.0 0.0 0.00 0.00 0.00 89 1009.0
20260905114927 69 263 0.0 0.0 0.00 0.00 0.00 90 1009.1
20260905114922 69 263 0.0 0.0 0.00 0.00 0.00 89 1009.1
20260905114711 69 263 0.0 0.0 0.00 0.00 0.00 90 1009.1
20260905114651 69 263 0.0 0.0 0.00 0.00 0.00 90 1009.1
20260905114612 69 263 0.0 0.0 0.00 0.00 0.00 90 1009.1
20260905114529 69 263 0.0 0.0 0.00 0.01 0.00 90 1009.2
20260905114525 69 263 0.0 0.0 0.00 0.00 0.00 90 1009.1
20260905114520 69 263 0.0 0.0 0.00 0.00 0.00 90 1009.1
20260905114310 69 263 0.0 0.0 0.00 0.00 0.00 90 1009.1
20260905114210 69 263 0.0 0.0 0.00 0.00 0.00 90 1009.1
20260905114148 69 263 0.0 0.0 0.00 0.00 0.00 90 1009.0
20260905114109 69 263 0.0 0.0 0.00 0.00 0.00 90 1009.0
20260905114030 68 263 0.0 0.0 0.00 0.01 0.00 90 1009.1
20260905114009 69 263 0.0 0.0 0.00 0.00 0.00 90 1009.0
20260905113909 68 263 0.0 0.0 0.00 0.00 0.00 90 1009.0
20260905113808 69 263 0.0 0.0 0.00 0.00 0.00 91 1008.9
20260905113708 69 263 0.0 0.0 0.00 0.00 0.00 91 1009.0
20260905113647 69 263 0.0 0.0 0.00 0.00 0.00 91 1009.0
20260905113607 69 263 0.0 0.0 0.00 0.00 0.00 91 1009.0
20260905113530 69 263 0.0 0.0 0.00 0.01 0.00 91 1009.1
20260905113507 69 263 0.0 0.0 0.00 0.00 0.00 91 1009.0
20260905113407 69 263 0.0 0.0 0.00 0.00 0.00 91 1009.0
20260905113306 69 263 0.0 0.0 0.00 0.00 0.00 91 1009.0
20260905113205 69 263 0.0 0.0 0.00 0.00 0.00 91 1009.0
20260905113146 69 263 0.0 0.0 0.00 0.00 0.00 91 1009.0
20260905113126 69 263 0.0 0.0 0.00 0.00 0.00 92 1008.9
20260905113030 69 263 0.0 0.0 0.00 0.01 0.00 92 1009.0
20260905113013 69 263 0.0 0.0 0.00 0.00 0.00 92 1008.9
20260905112803 69 263 0.0 0.0 0.00 0.00 0.00 92 1008.9
20260905112703 69 263 0.0 0.0 0.00 0.00 0.00 92 1008.8
20260905112646 69 263 0.0 0.0 0.00 0.00 0.00 92 1008.8
20260905112602 69 263 0.0 0.0 0.00 0.00 0.00 92 1008.8
20260905112530 69 263 0.0 0.0 0.00 0.01 0.00 92 1008.8
20260905112502 69 263 0.0 0.0 0.00 0.00 0.00 92 1008.7
20260905112401 69 263 0.0 0.0 0.00 0.00 0.00 92 1008.7
20260905112300 69 263 0.0 0.0 0.00 0.00 0.00 92 1008.7
20260905112146 69 263 0.0 0.0 0.00 0.00 0.00 92 1008.7
20260905112059 69 263 0.0 0.0 0.00 0.00 0.00 92 1008.7
20260905112029 69 263 0.0 0.0 0.00 0.01 0.00 93 1008.8
20260905111959 69 263 0.0 0.0 0.00 0.00 0.00 93 1008.7
20260905111858 69 263 0.0 0.0 0.00 0.00 0.00 93 1008.7
20260905111812 69 263 0.0 0.0 0.00 0.00 0.00 93 1008.7
20260905111807 69 263 0.0 0.0 0.00 0.00 0.00 93 1008.7
20260905111644 69 263 0.0 0.0 0.00 0.00 0.00 93 1008.7
20260905111557 69 263 0.0 0.0 0.00 0.00 0.00 93 1008.7
20260905111530 69 263 0.0 0.0 0.00 0.01 0.00 93 1008.8
20260905111456 69 263 0.0 0.0 0.00 0.00 0.00 93 1008.7
20260905111356 69 263 0.0 0.0 0.00 0.00 0.00 93 1008.7
20260905111256 69 263 0.0 0.0 0.00 0.00 0.00 93 1008.7
20260905111142 69 263 0.0 0.0 0.00 0.00 0.00 93 1008.8
20260905111055 69 263 0.0 0.0 0.00 0.00 0.00 93 1008.7
20260905111030 69 263 0.0 0.0 0.00 0.01 0.00 93 1008.7
20260905111019 69 263 0.0 0.0 0.00 0.00 0.00 93 1008.7
20260905111015 69 263 0.0 0.0 0.00 0.00 0.00 94 1008.7
20260905111010 69 263 0.0 0.0 0.00 0.00 0.00 93 1008.7
20260905110641 69 263 0.0 0.0 0.00 0.00 0.00 94 1008.7
20260905110530 69 263 0.0 0.0 0.00 0.01 0.00 94 1008.8
20260905110450 69 263 0.0 0.0 0.00 0.00 0.00 94 1008.8
20260905110400 69 263 0.0 0.0 0.00 0.00 0.00 93 1008.7
20260905110350 69 263 0.0 0.0 0.00 0.00 0.00 93 1008.7
20260905110256 69 263 0.0 0.0 0.00 0.00 0.00 93 1008.8
20260905110247 69 263 0.0 0.0 0.00 0.00 0.00 93 1008.7
20260905110111 69 263 0.0 0.0 0.00 0.00 0.00 93 1008.7
20260905110029 69 263 0.0 0.0 0.00 0.01 0.00 93 1008.7
20260905105957 69 263 0.0 0.0 0.00 0.00 0.00 93 1008.7
20260905105747 69 263 0.0 0.0 0.00 0.00 0.00 94 1008.7
20260905105639 69 263 0.0 0.0 0.00 0.00 0.00 94 1008.7
20260905105546 69 263 0.0 0.0 0.00 0.00 0.00 94 1008.6
20260905105530 69 263 0.0 0.0 0.00 0.01 0.00 94 1008.7
20260905105446 69 263 0.0 0.0 0.00 0.00 0.00 94 1008.6
20260905105345 69 263 0.0 0.0 0.00 0.00 0.00 94 1008.6
20260905105259 69 263 0.0 0.0 0.00 0.00 0.00 94 1008.5
20260905105254 69 263 0.0 0.0 0.00 0.00 0.00 94 1008.5
20260905105138 69 263 0.0 0.0 0.00 0.00 0.00 94 1008.5
20260905105044 69 263 0.0 0.0 0.00 0.00 0.00 94 1008.5
20260905105030 69 263 0.0 0.0 0.00 0.01 0.00 94 1008.5
20260905104944 69 263 0.0 0.0 0.00 0.00 0.00 94 1008.4
20260905104844 69 263 0.0 0.0 0.00 0.00 0.00 94 1008.4
20260905104743 69 263 0.0 0.0 0.00 0.00 0.00 94 1008.4
20260905104638 69 263 0.0 0.0 0.00 0.00 0.00 94 1008.4
20260905104543 69 263 0.0 0.0 0.00 0.00 0.00 94 1008.3
20260905104530 69 263 0.0 0.0 0.00 0.01 0.00 94 1008.4
20260905104442 69 263 0.0 0.0 0.00 0.00 0.00 94 1008.3
20260905104342 69 263 0.0 0.0 0.00 0.00 0.00 94 1008.4
20260905104242 69 263 0.0 0.0 0.00 0.00 0.00 94 1008.3
20260905104137 69 263 0.0 0.0 0.00 0.00 0.00 94 1008.3
20260905104039 69 263 0.0 0.0 0.00 0.00 0.00 94 1008.3
20260905104030 69 263 0.0 0.0 0.00 0.01 0.00 94 1008.4
20260905103939 69 263 0.0 0.0 0.00 0.00 0.00 94 1008.3
20260905103839 69 263 0.0 0.0 0.00 0.00 0.00 94 1008.3
20260905103738 69 263 0.0 0.0 0.00 0.00 0.00 94 1008.3
20260905103639 69 263 0.0 0.0 0.00 0.00 0.00 94 1008.4
20260905103538 69 263 0.0 0.0 0.00 0.00 0.00 94 1008.3
20260905103530 69 263 0.0 0.0 0.00 0.01 0.00 94 1008.4
20260905103437 69 263 0.0 0.0 0.00 0.00 0.00 94 1008.3
20260905103337 69 263 0.0 0.0 0.00 0.00 0.00 94 1008.3
20260905103237 69 263 0.0 0.0 0.00 0.00 0.00 94 1008.2
20260905103139 69 263 0.0 0.0 0.00 0.00 0.00 94 1008.3
20260905103036 69 263 0.0 0.0 0.00 0.00 0.00 94 1008.2
20260905103030 69 263 0.0 0.0 0.00 0.01 0.00 94 1008.3
20260905102950 69 263 0.0 0.0 0.00 0.00 0.00 94 1008.2
20260905102945 69 263 0.0 0.0 0.00 0.00 0.00 94 1008.2
20260905102735 69 263 0.0 0.0 0.00 0.00 0.00 94 1008.1
20260905102636 69 263 0.0 0.0 0.00 0.00 0.00 94 1008.1
20260905102534 69 263 0.0 0.0 0.00 0.00 0.00 94 1008.1
20260905102530 69 263 0.0 0.0 0.00 0.01 0.00 94 1008.3
20260905102434 69 263 0.0 0.0 0.00 0.00 0.00 94 1008.2
20260905102334 69 263 0.0 0.0 0.00 0.00 0.00 94 1008.2
20260905102232 69 263 0.0 0.0 0.00 0.00 0.00 94 1008.2
20260905102152 69 263 0.0 0.0 0.00 0.00 0.00 94 1008.1
20260905102141 69 263 0.0 0.0 0.00 0.00 0.00 94 1008.2
20260905102030 69 263 0.0 0.0 0.00 0.01 0.00 94 1008.3
20260905101932 69 263 0.0 0.0 0.00 0.00 0.00 94 1008.2
20260905101831 69 263 0.0 0.0 0.00 0.00 0.00 94 1008.1
20260905101731 69 263 0.0 0.0 0.00 0.00 0.00 94 1008.1
20260905101630 69 263 0.0 0.0 0.00 0.00 0.00 94 1008.1
20260905101544 69 263 0.0 0.0 0.00 0.01 0.00 93 1008.2
20260905101530 69 263 0.0 0.0 0.00 0.00 0.00 93 1008.1
20260905101430 69 263 0.0 0.0 0.00 0.00 0.00 93 1008.1
20260905101328 69 263 0.0 0.0 0.00 0.00 0.00 93 1008.1
20260905101229 69 263 0.0 0.0 0.00 0.00 0.00 93 1008.1
20260905101127 69 263 0.0 0.0 0.00 0.00 0.00 93 1008.1
20260905101030 69 263 0.0 0.0 0.00 0.01 0.00 93 1008.3
20260905101027 69 263 0.0 0.0 0.00 0.00 0.00 93 1008.2
20260905100941 69 263 0.0 0.0 0.00 0.00 0.00 93 1008.1
20260905100936 69 263 0.0 0.0 0.00 0.00 0.00 93 1008.2
20260905100726 69 263 0.0 0.0 0.00 0.00 0.00 93 1008.1
20260905100626 69 263 0.0 0.0 0.00 0.00 0.00 93 1008.1
20260905100530 69 263 0.0 0.0 0.00 0.01 0.00 93 1008.2
20260905100526 69 263 0.0 0.0 0.00 0.00 0.00 93 1008.1
20260905100425 69 263 0.0 0.0 0.00 0.00 0.00 93 1008.1
20260905100325 69 263 0.0 0.0 0.00 0.00 0.00 93 1008.1
20260905100250 69 263 0.0 0.0 0.00 0.00 0.00 94 1008.1
20260905100131 69 263 0.0 0.0 0.00 0.00 0.00 94 1008.1
20260905100029 69 263 0.0 0.0 0.00 0.01 0.00 94 1008.2
20260905095920 69 263 0.0 0.0 0.00 0.00 0.00 94 1008.1
20260905095819 69 263 0.0 0.0 0.00 0.00 0.00 94 1008.1
20260905095719 69 263 0.0 0.0 0.00 0.00 0.00 94 1008.1
20260905095618 69 263 0.0 0.0 0.00 0.00 0.00 94 1008.1
20260905095529 69 263 0.0 0.0 0.00 0.01 0.00 94 1008.2
20260905095518 69 263 0.0 0.0 0.00 0.00 0.00 94 1008.1
20260905095417 69 263 0.0 0.0 0.00 0.00 0.00 94 1008.1
20260905095317 69 263 0.0 0.0 0.00 0.00 0.00 94 1008.1
20260905095215 69 263 0.0 0.0 0.00 0.00 0.00 94 1008.1
20260905095116 69 263 0.0 0.0 0.00 0.00 0.00 94 1008.1
20260905095030 69 263 0.0 0.0 0.00 0.01 0.00 94 1008.2
20260905095017 69 263 0.0 0.0 0.00 0.00 0.00 94 1008.1
20260905094913 69 263 0.0 0.0 0.00 0.00 0.00 94 1008.1
20260905094813 69 263 0.0 0.0 0.00 0.00 0.00 94 1008.1
20260905094713 69 263 0.0 0.0 0.00 0.00 0.00 94 1008.1
20260905094634 69 263 0.0 0.0 0.00 0.00 0.00 94 1008.1
20260905094530 69 263 0.0 0.0 0.00 0.01 0.00 94 1008.2
20260905094520 69 263 0.0 0.0 0.00 0.00 0.00 94 1008.2
20260905094335 69 263 0.0 0.0 0.00 0.00 0.00 94 1008.1
20260905094222 69 263 0.0 0.0 0.00 0.00 0.00 94 1008.1
20260905094214 69 263 0.0 0.0 0.00 0.00 0.00 94 1008.1
20260905094100 69 263 0.0 0.0 0.00 0.01 0.00 94 1008.1
20260905094007 69 263 0.0 0.0 0.00 0.00 0.00 94 1008.1
20260905093906 69 263 0.0 0.0 0.00 0.00 0.00 94 1008.0
20260905093807 69 263 0.0 0.0 0.00 0.00 0.00 94 1008.0
20260905093707 69 263 0.0 0.0 0.00 0.00 0.00 94 1008.0
20260905093606 69 263 0.0 0.0 0.00 0.00 0.00 94 1008.0
20260905093530 69 263 0.0 0.0 0.00 0.01 0.00 94 1008.1
20260905093505 69 263 0.0 0.0 0.00 0.00 0.00 94 1008.0
20260905093406 69 263 0.0 0.0 0.00 0.00 0.00 94 1008.0
20260905093303 69 263 0.0 0.0 0.00 0.00 0.00 94 1008.0
20260905093232 69 263 0.0 0.0 0.00 0.00 0.00 94 1008.1
20260905093226 69 263 0.0 0.0 0.00 0.00 0.00 94 1008.0
20260905093218 69 263 0.0 0.0 0.00 0.00 0.00 94 1008.0
20260905093030 69 263 0.0 0.0 0.00 0.01 0.00 94 1008.2
20260905092902 69 263 0.0 0.0 0.00 0.00 0.00 94 1008.0
20260905092802 69 263 0.0 0.0 0.00 0.00 0.00 94 1008.0
20260905092700 69 263 0.0 0.0 0.00 0.00 0.00 94 1008.0
20260905092625 69 263 0.0 0.0 0.00 0.00 0.00 94 1008.0
20260905092559 69 263 0.0 0.0 0.00 0.00 0.00 94 1008.0
20260905092530 69 263 0.0 0.0 0.00 0.01 0.00 94 1008.1
20260905092458 69 263 0.0 0.0 0.00 0.00 0.00 94 1008.0
20260905092358 69 263 0.0 0.0 0.00 0.00 0.00 94 1008.0
20260905092258 69 263 0.0 0.0 0.00 0.00 0.00 94 1008.0
20260905092217 69 263 0.0 0.0 0.00 0.00 0.00 94 1008.0
20260905092203 69 263 0.0 0.0 0.00 0.00 0.00 94 1008.0
20260905092030 69 263 0.0 0.0 0.00 0.01 0.00 94 1008.1
20260905091956 69 263 0.0 0.0 0.00 0.00 0.00 94 1008.0
20260905091856 69 263 0.0 0.0 0.00 0.00 0.00 94 1008.0
20260905091844 69 263 0.0 0.0 0.00 0.00 0.00 94 1008.0
20260905091756 69 263 0.0 0.0 0.00 0.00 0.00 94 1008.0
20260905091732 69 263 0.0 0.0 0.00 0.00 0.00 94 1008.0
20260905091554 69 263 0.0 0.0 0.00 0.00 0.00 94 1008.0
20260905091530 69 263 0.0 0.0 0.00 0.01 0.00 94 1008.1
20260905091455 69 263 0.0 0.0 0.00 0.00 0.00 94 1008.0
20260905091355 69 263 0.0 0.0 0.00 0.00 0.00 94 1008.0
20260905091253 69 263 0.0 0.0 0.00 0.00 0.00 94 1008.0
20260905091153 69 263 0.0 0.0 0.00 0.00 0.00 94 1008.0
20260905091122 69 263 0.0 0.0 0.00 0.00 0.00 94 1008.0
20260905091053 69 263 0.0 0.0 0.00 0.00 0.00 94 1008.0
20260905091030 69 263 0.0 0.0 0.00 0.01 0.00 95 1008.1
20260905090952 69 263 0.0 0.0 0.00 0.00 0.00 95 1008.0
20260905090852 69 263 0.0 0.0 0.00 0.00 0.00 94 1008.0
20260905090750 69 263 0.0 0.0 0.00 0.00 0.00 94 1008.0
20260905090621 69 263 0.0 0.0 0.00 0.00 0.00 95 1008.0
20260905090604 69 263 0.0 0.0 0.00 0.00 0.00 95 1008.0
20260905090559 69 263 0.0 0.0 0.00 0.00 0.00 95 1008.0
20260905090530 69 263 0.0 0.0 0.00 0.01 0.00 95 1008.1
20260905090349 69 263 0.0 0.0 0.00 0.00 0.00 95 1008.0
20260905090249 69 263 0.0 0.0 0.00 0.00 0.00 95 1008.0
20260905090119 69 263 0.0 0.0 0.00 0.00 0.00 95 1008.0
20260905090048 69 263 0.0 0.0 0.00 0.00 0.00 95 1008.0
20260905090031 69 263 0.0 0.0 0.00 0.01 0.00 95 1008.1
20260905085947 69 263 0.0 0.0 0.00 0.00 0.00 95 1008.0
20260905085846 69 263 0.0 0.0 0.00 0.00 0.00 95 1008.0
20260905085745 69 263 0.0 0.0 0.00 0.00 0.00 95 1008.0
20260905085619 69 263 0.0 0.0 0.00 0.00 0.00 95 1008.0
20260905085546 69 263 0.0 0.0 0.00 0.00 0.00 95 1008.0
20260905085530 69 263 0.0 0.0 0.00 0.01 0.00 95 1008.0
20260905085446 69 263 0.0 0.0 0.00 0.00 0.00 95 1007.9
20260905085348 69 263 0.0 0.0 0.00 0.00 0.00 95 1007.9
20260905085342 69 263 0.0 0.0 0.00 0.00 0.00 95 1007.9
20260905085243 69 263 0.0 0.0 0.00 0.00 0.00 95 1007.9
20260905085226 69 263 0.0 0.0 0.00 0.00 0.00 95 1007.9
20260905085055 69 263 0.0 0.0 0.00 0.00 0.00 95 1007.9
20260905085051 69 263 0.0 0.0 0.00 0.00 0.00 95 1007.9
20260905085030 69 263 0.0 0.0 0.00 0.01 0.00 95 1008.0
20260905084854 69 263 0.0 0.0 0.00 0.00 0.00 95 1007.9
20260905084850 69 263 0.0 0.0 0.00 0.00 0.00 95 1007.9
20260905084616 69 263 0.0 0.0 0.00 0.00 0.00 95 1007.8
20260905084540 69 263 0.0 0.0 0.00 0.00 0.00 95 1007.8
20260905084530 69 263 0.0 0.0 0.00 0.01 0.00 95 1008.0
20260905084439 69 263 0.0 0.0 0.00 0.00 0.00 95 1007.9
20260905084338 69 263 0.0 0.0 0.00 0.00 0.00 95 1007.9
20260905084238 69 263 0.0 0.0 0.00 0.00 0.00 95 1007.8
20260905084116 69 263 0.0 0.0 0.00 0.00 0.00 95 1007.8
20260905084036 69 263 0.0 0.0 0.00 0.00 0.00 95 1007.9
20260905084030 69 263 0.0 0.0 0.00 0.01 0.00 95 1008.0
20260905083949 69 263 0.0 0.0 0.00 0.00 0.00 95 1007.9
20260905083944 69 263 0.0 0.0 0.00 0.00 0.00 95 1007.9
20260905083733 69 263 0.0 0.0 0.00 0.00 0.00 95 1007.9
20260905083615 69 263 0.0 0.0 0.00 0.00 0.00 95 1007.9
20260905083533 69 263 0.0 0.0 0.00 0.00 0.00 95 1007.9
20260905083530 69 263 0.0 0.0 0.00 0.01 0.00 95 1008.0
20260905083433 69 263 0.0 0.0 0.00 0.00 0.00 95 1007.9
20260905083332 69 263 0.0 0.0 0.00 0.00 0.00 95 1007.9
20260905083232 69 263 0.0 0.0 0.00 0.00 0.00 95 1007.9
20260905083113 69 263 0.0 0.0 0.00 0.00 0.00 95 1008.0
20260905083045 69 263 0.0 0.0 0.00 0.01 0.00 95 1008.0
20260905083030 69 263 0.0 0.0 0.00 0.00 0.00 95 1007.9
20260905082930 69 263 0.0 0.0 0.00 0.00 0.00 95 1007.9
20260905082830 69 263 0.0 0.0 0.00 0.00 0.00 95 1007.9
20260905082729 69 263 0.0 0.0 0.00 0.00 0.00 95 1007.9
20260905082611 69 263 0.0 0.0 0.00 0.00 0.00 95 1007.9
20260905082530 69 263 0.0 0.0 0.00 0.01 0.00 95 1008.0
20260905082528 69 263 0.0 0.0 0.00 0.00 0.00 95 1007.9
20260905082428 69 263 0.0 0.0 0.00 0.00 0.00 95 1007.9
20260905082328 69 263 0.0 0.0 0.00 0.00 0.00 95 1007.8
20260905082228 69 263 0.0 0.0 0.00 0.00 0.00 95 1007.8
20260905082146 69 263 0.0 0.0 0.00 0.00 0.00 95 1007.9
20260905082133 69 263 0.0 0.0 0.00 0.00 0.00 95 1007.9
20260905082030 70 263 0.0 0.0 0.00 0.01 0.00 95 1008.0
20260905081951 69 263 0.0 0.0 0.00 0.00 0.00 95 1007.9
20260905081947 69 263 0.0 0.0 0.00 0.00 0.00 95 1007.9
20260905081942 69 263 0.0 0.0 0.00 0.00 0.00 95 1007.9
20260905081643 70 263 0.0 0.0 0.00 0.00 0.00 95 1007.9
20260905081631 69 263 0.0 0.0 0.00 0.00 0.00 95 1008.0
20260905081530 70 263 0.0 0.0 0.00 0.01 0.00 95 1008.0
20260905081436 70 263 0.0 0.0 0.00 0.00 0.00 95 1007.9
20260905081432 69 263 0.0 0.0 0.00 0.00 0.00 95 1007.9
20260905081223 70 263 0.0 0.0 0.00 0.00 0.00 95 1007.9
20260905081140 70 263 0.0 0.0 0.00 0.00 0.00 95 1008.0
20260905081128 70 263 0.0 0.0 0.00 0.00 0.00 95 1007.9
20260905081030 70 263 0.0 0.0 0.00 0.01 0.00 95 1008.1
20260905080921 70 263 0.0 0.0 0.00 0.00 0.00 95 1008.0
20260905080821 70 263 0.0 0.0 0.00 0.00 0.00 95 1007.9
20260905080721 70 263 0.0 0.0 0.00 0.00 0.00 95 1008.0
20260905080608 70 263 0.0 0.0 0.00 0.00 0.00 95 1007.9
20260905080555 70 263 0.0 0.0 0.00 0.00 0.00 95 1007.9
20260905080545 70 263 0.0 0.0 0.00 0.01 0.00 95 1008.0
20260905080443 70 263 0.0 0.0 0.00 0.00 0.00 95 1007.9
20260905080437 70 263 0.0 0.0 0.00 0.00 0.00 95 1007.9
20260905080107 70 263 0.0 0.0 0.00 0.00 0.00 95 1007.9
20260905080030 70 263 0.0 0.0 0.00 0.01 0.00 95 1008.0
20260905080018 70 263 0.0 0.0 0.00 0.00 0.00 95 1007.9
20260905075918 70 263 0.0 0.0 0.00 0.00 0.00 95 1007.9
20260905075816 70 263 0.0 0.0 0.00 0.00 0.00 95 1007.9
20260905075716 70 263 0.0 0.0 0.00 0.00 0.00 95 1007.9
20260905075607 70 263 0.0 0.0 0.00 0.00 0.00 95 1007.9
20260905075530 70 263 0.0 0.0 0.00 0.01 0.00 95 1008.0
20260905075514 70 263 0.0 0.0 0.00 0.00 0.00 95 1007.9
20260905075413 70 263 0.0 0.0 0.00 0.00 0.00 95 1007.9
20260905075326 70 263 0.0 0.0 0.00 0.00 0.00 95 1007.9
20260905075322 70 263 0.0 0.0 0.00 0.00 0.00 95 1007.9
20260905075103 70 263 0.0 0.0 0.00 0.00 0.00 95 1007.9
20260905075030 70 263 0.0 0.0 0.00 0.01 0.00 95 1008.0
20260905075011 70 263 0.0 0.0 0.00 0.00 0.00 95 1007.9
20260905074929 70 263 0.0 0.0 0.00 0.00 0.00 95 1007.9
20260905074911 70 263 0.0 0.0 0.00 0.00 0.00 95 1007.9
20260905074837 70 263 0.0 0.0 0.00 0.00 0.00 95 1007.9
20260905074833 70 263 0.0 0.0 0.00 0.00 0.00 95 1008.0
20260905074828 70 263 0.0 0.0 0.00 0.00 0.00 95 1007.9
20260905074819 70 263 0.0 0.0 0.00 0.00 0.00 95 1007.9
20260905074810 70 263 0.0 0.0 0.00 0.00 0.00 95 1007.9
20260905074552 69 263 0.0 0.0 0.00 0.00 0.00 95 1008.0
20260905074547 70 263 0.0 0.0 0.00 0.00 0.00 95 1007.9
20260905074530 70 263 0.0 0.0 0.00 0.01 0.00 95 1008.0
20260905074319 70 263 0.0 0.0 0.00 0.00 0.00 95 1008.0
20260905074030 70 263 0.0 0.0 0.00 0.01 0.00 95 1008.1
20260905074019 69 263 0.0 0.0 0.00 0.00 0.00 95 1008.0
20260905074015 69 263 0.0 0.0 0.00 0.00 0.00 95 1008.0
20260905073805 69 263 0.0 0.0 0.00 0.00 0.00 95 1008.0
20260905073705 69 263 0.0 0.0 0.00 0.00 0.00 95 1008.0
20260905073602 69 263 0.0 0.0 0.00 0.00 0.00 95 1007.9
20260905073554 69 263 0.0 0.0 0.00 0.00 0.00 95 1007.9
20260905073545 70 263 0.0 0.0 0.00 0.01 0.00 95 1008.0
20260905073441 69 263 0.0 0.0 0.00 0.00 0.00 95 1007.9
20260905073327 69 263 0.0 0.0 0.00 0.00 0.00 95 1007.9
20260905073105 69 263 0.0 0.0 0.00 0.00 0.00 95 1007.9
20260905073030 70 263 0.0 0.0 0.00 0.01 0.00 95 1008.0
20260905073002 69 263 0.0 0.0 0.00 0.00 0.00 95 1007.9
20260905072902 69 263 0.0 0.0 0.00 0.00 0.00 95 1007.9
20260905072801 69 263 0.0 0.0 0.00 0.00 0.00 95 1007.9
20260905072723 69 263 0.0 0.0 0.00 0.00 0.00 95 1007.9
20260905072717 69 263 0.0 0.0 0.00 0.00 0.00 95 1008.0
20260905072604 69 263 0.0 0.0 0.00 0.00 0.00 95 1007.9
20260905072530 70 263 0.0 0.0 0.00 0.01 0.00 95 1008.0
20260905072502 69 263 0.0 0.0 0.00 0.00 0.00 95 1007.9
20260905072402 69 263 0.0 0.0 0.00 0.00 0.00 95 1007.9
20260905072315 69 263 0.0 0.0 0.00 0.00 0.00 95 1007.9
20260905072310 69 263 0.0 0.0 0.00 0.00 0.00 95 1008.0
20260905072103 69 263 0.0 0.0 0.00 0.00 0.00 95 1007.9
20260905072030 70 263 0.0 0.0 0.00 0.01 0.00 95 1008.0
20260905072014 70 263 0.0 0.0 0.00 0.00 0.00 95 1007.9
20260905072010 70 263 0.0 0.0 0.00 0.00 0.00 95 1007.9
20260905071802 69 263 0.0 0.0 0.00 0.00 0.00 95 1008.0
20260905071701 70 263 0.0 0.0 0.00 0.00 0.00 95 1008.0
20260905071602 69 263 0.0 0.0 0.00 0.00 0.00 95 1008.0
20260905071529 70 263 0.0 0.0 0.00 0.01 0.00 95 1008.1
20260905071501 70 263 0.0 0.0 0.00 0.00 0.00 95 1008.0
20260905071416 70 263 0.0 0.0 0.00 0.00 0.00 95 1008.0
20260905071411 70 263 0.0 0.0 0.00 0.00 0.00 95 1008.0
20260905071201 70 263 0.0 0.0 0.00 0.00 0.00 95 1008.0
20260905071103 70 263 0.0 0.0 0.00 0.00 0.00 95 1008.0
20260905071031 70 263 0.0 0.0 0.00 0.01 0.00 95 1008.1
20260905071001 70 263 0.0 0.0 0.00 0.00 0.00 95 1008.0
20260905070859 70 263 0.0 0.0 0.00 0.00 0.00 95 1008.0
20260905070759 70 263 0.0 0.0 0.00 0.00 0.00 95 1008.0
20260905070659 70 263 0.0 0.0 0.00 0.00 0.00 95 1008.0
20260905070619 70 263 0.0 0.0 0.00 0.00 0.00 95 1008.1
20260905070610 70 263 0.0 0.0 0.00 0.00 0.00 94 1008.0
20260905070600 70 263 0.0 0.0 0.00 0.01 0.00 95 1008.2
20260905070358 70 263 0.0 0.0 0.00 0.00 0.00 94 1008.0
20260905070258 70 263 0.0 0.0 0.00 0.00 0.00 95 1008.1
20260905070158 70 263 0.0 0.0 0.00 0.00 0.00 95 1008.1
20260905070059 70 263 0.0 0.0 0.00 0.00 0.00 94 1008.0
20260905070030 70 263 0.0 0.0 0.00 0.01 0.00 94 1008.1
20260905070024 70 263 0.0 0.0 0.00 0.00 0.00 94 1008.0
20260905070020 70 263 0.0 0.0 0.00 0.00 0.00 94 1008.0
20260905070014 70 263 0.0 0.0 0.00 0.00 0.00 94 1008.0
20260905065656 70 263 0.0 0.0 0.00 0.00 0.00 94 1008.0
20260905065614 70 263 0.0 0.0 0.00 0.00 0.00 94 1008.0
20260905065605 70 263 0.0 0.0 0.00 0.00 0.00 94 1008.0
20260905065530 70 263 0.0 0.0 0.00 0.01 0.00 94 1008.1
20260905065409 70 263 0.0 0.0 0.00 0.00 0.00 94 1008.1
20260905065404 70 263 0.0 0.0 0.00 0.00 0.00 94 1008.1
20260905065153 70 263 0.0 0.0 0.00 0.00 0.00 94 1008.1
20260905065055 70 263 0.0 0.0 0.00 0.00 0.00 94 1008.1
20260905065045 70 263 0.0 0.0 0.00 0.01 0.00 94 1008.2
20260905064953 70 263 0.0 0.0 0.00 0.00 0.00 94 1008.1
20260905064853 70 263 0.0 0.0 0.00 0.00 0.00 94 1008.1
20260905064752 70 263 0.0 0.0 0.00 0.00 0.00 94 1008.1
20260905064652 70 263 0.0 0.0 0.00 0.00 0.00 94 1008.1
20260905064609 70 263 0.0 0.0 0.00 0.00 0.00 94 1008.1
20260905064600 70 263 0.0 0.0 0.00 0.01 0.00 94 1008.2
20260905064452 70 263 0.0 0.0 0.00 0.00 0.00 94 1008.1
20260905064408 70 263 0.0 0.0 0.00 0.00 0.00 94 1008.1
20260905064404 70 263 0.0 0.0 0.00 0.00 0.00 94 1008.2
20260905064358 70 263 0.0 0.0 0.00 0.00 0.00 94 1008.1
20260905064217 70 263 0.0 0.0 0.00 0.00 0.00 94 1008.1
20260905064211 70 263 0.0 0.0 0.00 0.00 0.00 94 1008.1
20260905064056 70 263 0.0 0.0 0.00 0.00 0.00 94 1008.2
20260905064045 70 263 0.0 0.0 0.00 0.01 0.00 94 1008.2
20260905063847 70 263 0.0 0.0 0.00 0.00 0.00 94 1008.2
20260905063747 70 263 0.0 0.0 0.00 0.00 0.00 94 1008.2
20260905063646 70 263 0.0 0.0 0.00 0.00 0.00 94 1008.2
20260905063546 70 263 0.0 0.0 0.00 0.00 0.00 94 1008.3
20260905063445 70 263 0.0 0.0 0.00 0.00 0.00 94 1008.4
20260905063345 70 263 0.0 0.0 0.00 0.00 0.00 94 1008.3
20260905063245 70 263 0.0 0.0 0.00 0.00 0.00 94 1008.3
20260905063158 70 263 0.0 0.0 0.00 0.00 0.00 94 1008.3
20260905063149 70 263 0.0 0.0 0.00 0.00 0.00 94 1008.3
20260905063045 70 263 0.0 0.0 0.00 0.01 0.00 94 1008.4
20260905062943 70 263 0.0 0.0 0.00 0.00 0.00 94 1008.3
20260905062843 70 263 0.0 0.0 0.00 0.00 0.00 94 1008.3
20260905062742 70 263 0.0 0.0 0.00 0.00 0.00 94 1008.3
20260905062641 70 263 0.0 0.0 0.00 0.00 0.00 94 1008.3
20260905062545 70 263 0.0 0.0 0.00 0.01 0.00 94 1008.4
20260905062541 70 263 0.0 0.0 0.00 0.00 0.00 94 1008.3
20260905062440 70 263 0.0 0.0 0.00 0.00 0.00 94 1008.3
20260905062340 70 263 0.0 0.0 0.00 0.00 0.00 94 1008.4
20260905062252 70 263 0.0 0.0 0.00 0.00 0.00 94 1008.3
20260905062246 70 263 0.0 0.0 0.00 0.00 0.00 94 1008.3
20260905062037 70 263 0.0 0.0 0.00 0.00 0.00 94 1008.3
20260905062030 70 263 0.0 0.0 0.00 0.01 0.00 94 1008.4
20260905061936 70 263 0.0 0.0 0.00 0.00 0.00 94 1008.3
20260905061837 70 263 0.0 0.0 0.00 0.00 0.00 94 1008.3
20260905061802 70 263 0.0 0.0 0.00 0.00 0.00 94 1008.2
20260905061737 70 263 0.0 0.0 0.00 0.00 0.00 94 1008.3
20260905061653 70 263 0.0 0.0 0.00 0.00 0.00 94 1008.3
20260905061537 70 263 0.0 0.0 0.00 0.00 0.00 94 1008.2
20260905061530 70 263 0.0 0.0 0.00 0.01 0.00 93 1008.3
20260905061451 70 263 0.0 0.0 0.00 0.00 0.00 93 1008.2
20260905061446 70 263 0.0 0.0 0.00 0.00 0.00 93 1008.2
20260905061236 71 263 0.0 0.0 0.00 0.00 0.00 93 1008.2
20260905061149 71 263 0.0 0.0 0.00 0.00 0.00 93 1008.2
20260905061141 71 263 0.0 0.0 0.00 0.00 0.00 93 1008.2
20260905061030 71 263 0.0 0.0 0.00 0.01 0.00 93 1008.3
20260905060947 71 263 0.0 0.0 0.00 0.00 0.00 93 1008.2
20260905060942 71 263 0.0 0.0 0.00 0.00 0.00 93 1008.2
20260905060732 71 263 0.0 0.0 0.00 0.00 0.00 93 1008.2
20260905060632 71 263 0.0 0.0 0.00 0.00 0.00 93 1008.2
20260905060531 71 263 0.0 0.0 0.00 0.00 0.00 93 1008.2
20260905060431 71 263 0.0 0.0 0.00 0.00 0.00 94 1008.3
20260905060413 71 263 0.0 0.0 0.00 0.00 0.00 93 1008.2
20260905060407 71 263 0.0 0.0 0.00 0.00 0.00 93 1008.2
20260905060253 71 263 0.0 0.0 0.00 0.00 0.00 93 1008.3
20260905060244 71 263 0.0 0.0 0.00 0.00 0.00 93 1008.2
20260905060030 71 263 0.0 0.0 0.00 0.01 0.00 93 1008.3
20260905055928 71 263 0.0 0.0 0.00 0.00 0.00 93 1008.2
20260905055827 71 263 0.0 0.0 0.00 0.00 0.00 93 1008.3
20260905055726 71 263 0.0 0.0 0.00 0.00 0.00 93 1008.2
20260905055626 71 263 0.0 0.0 0.00 0.00 0.00 93 1008.2
20260905055530 71 263 0.0 0.0 0.00 0.01 0.00 93 1008.3
20260905055526 71 263 0.0 0.0 0.00 0.00 0.00 93 1008.2
20260905055425 71 263 0.0 0.0 0.00 0.00 0.00 93 1008.2
20260905055325 71 263 0.0 0.0 0.00 0.00 0.00 93 1008.3
20260905055225 71 263 0.0 0.0 0.00 0.00 0.00 93 1008.3
20260905055123 71 263 0.0 0.0 0.00 0.00 0.00 93 1008.3
20260905055030 71 263 0.0 0.0 0.00 0.01 0.00 93 1008.4
20260905055024 71 263 0.0 0.0 0.00 0.00 0.00 93 1008.2
20260905054922 71 263 0.0 0.0 0.00 0.00 0.00 93 1008.3
20260905054822 71 263 0.0 0.0 0.00 0.00 0.00 93 1008.2
20260905054722 71 263 0.0 0.0 0.00 0.00 0.00 93 1008.3
20260905054622 71 263 0.0 0.0 0.00 0.00 0.00 93 1008.2
20260905054530 71 263 0.0 0.0 0.00 0.01 0.00 93 1008.4
20260905054521 71 263 0.0 0.0 0.00 0.00 0.00 93 1008.3
20260905054421 71 263 0.0 0.0 0.00 0.00 0.00 93 1008.3
20260905054321 71 263 0.0 0.0 0.00 0.00 0.00 93 1008.3
20260905054220 71 263 0.0 0.0 0.00 0.00 0.00 93 1008.2
20260905054120 71 263 0.0 0.0 0.00 0.00 0.00 93 1008.3
20260905054030 71 263 0.0 0.0 0.00 0.01 0.00 93 1008.4
20260905054020 71 263 0.0 0.0 0.00 0.00 0.00 93 1008.3
20260905053919 71 263 0.0 0.0 0.00 0.00 0.00 93 1008.3
20260905053819 71 263 0.0 0.0 0.00 0.00 0.00 93 1008.3
20260905053718 71 263 0.0 0.0 0.00 0.00 0.00 93 1008.3
20260905053618 71 263 0.0 0.0 0.00 0.00 0.00 93 1008.3
20260905053530 72 263 0.0 0.0 0.00 0.01 0.00 93 1008.4
20260905053518 72 263 0.0 0.0 0.00 0.00 0.00 93 1008.3
20260905053417 72 263 0.0 0.0 0.00 0.00 0.00 93 1008.3
20260905053317 72 263 0.0 0.0 0.00 0.00 0.00 93 1008.3
20260905053216 72 263 0.0 0.0 0.00 0.00 0.00 92 1008.3
20260905053116 72 263 0.0 0.0 0.00 0.00 0.00 92 1008.4
20260905053030 72 263 0.0 0.0 0.00 0.01 0.00 92 1008.5
20260905053015 72 263 0.0 0.0 0.00 0.00 0.00 92 1008.4
20260905052915 72 263 0.0 0.0 0.00 0.00 0.00 92 1008.4
20260905052815 72 263 0.0 0.0 0.00 0.00 0.00 92 1008.4
20260905052754 72 263 0.0 0.0 0.00 0.00 0.00 92 1008.5
20260905052713 72 263 0.0 0.0 0.00 0.00 0.00 92 1008.4
20260905052637 72 263 0.0 0.0 0.00 0.00 0.00 92 1008.5
20260905052530 72 263 0.0 0.0 0.00 0.01 0.00 92 1008.7
20260905052513 72 263 0.0 0.0 0.00 0.00 0.00 92 1008.5
20260905052412 72 263 0.0 0.0 0.00 0.00 0.00 92 1008.6
20260905052311 72 263 0.0 0.0 0.00 0.00 0.00 92 1008.6
20260905052211 72 263 0.0 0.0 0.00 0.00 0.00 92 1008.6
20260905052111 72 263 0.0 0.0 0.00 0.00 0.00 92 1008.6
20260905052045 72 263 0.0 0.0 0.00 0.01 0.00 92 1008.7
20260905052010 72 263 0.0 0.0 0.00 0.00 0.00 92 1008.6
20260905051909 72 263 0.0 0.0 0.00 0.00 0.00 92 1008.6
20260905051809 72 263 0.0 0.0 0.00 0.00 0.00 92 1008.6
20260905051708 72 263 0.0 0.0 0.00 0.00 0.00 92 1008.6
20260905051608 72 263 0.0 0.0 0.00 0.00 0.00 92 1008.6
20260905051545 72 263 0.0 0.0 0.00 0.01 0.00 92 1008.7
20260905051529 72 263 0.0 0.0 0.00 0.00 0.00 92 1008.6
20260905051416 72 263 0.0 0.0 0.00 0.00 0.00 92 1008.6
20260905051206 72 263 0.0 0.0 0.00 0.00 0.00 92 1008.6
20260905051106 72 263 0.0 0.0 0.00 0.00 0.00 92 1008.6
20260905051030 72 263 0.0 0.0 0.00 0.01 0.00 92 1008.7
20260905051003 72 263 0.0 0.0 0.00 0.00 0.00 92 1008.6
20260905050917 72 263 0.0 0.0 0.00 0.00 0.00 92 1008.6
20260905050911 72 263 0.0 0.0 0.00 0.00 0.00 92 1008.6
20260905050702 73 263 0.0 0.0 0.00 0.00 0.00 92 1008.6
20260905050603 73 263 0.0 0.0 0.00 0.00 0.00 92 1008.7
20260905050530 73 263 0.0 0.0 0.00 0.01 0.00 92 1008.9
20260905050523 73 263 0.0 0.0 0.00 0.00 0.00 92 1008.7
20260905050501 73 263 0.0 0.0 0.00 0.00 0.00 92 1008.7
20260905050416 73 263 0.0 0.0 0.00 0.00 0.00 92 1008.7
20260905050411 73 263 0.0 0.0 0.00 0.00 0.00 92 1008.7
20260905050201 73 263 0.0 0.0 0.00 0.00 0.00 92 1008.7
20260905050045 73 263 0.0 0.0 0.00 0.01 0.00 92 1008.9
20260905050022 73 263 0.0 0.0 0.00 0.00 0.00 92 1008.7
20260905050002 73 263 0.0 0.0 0.00 0.00 0.00 92 1008.7
20260905045900 73 263 0.0 0.0 0.00 0.00 0.00 92 1008.6
20260905045800 73 263 0.0 0.0 0.00 0.00 0.00 92 1008.6
20260905045712 73 263 0.0 0.0 0.00 0.00 0.00 92 1008.5
20260905045707 73 263 0.0 0.0 0.00 0.00 0.00 92 1008.6
20260905045530 73 263 0.0 0.0 0.00 0.01 0.00 92 1008.6
20260905045523 73 263 0.0 0.0 0.00 0.00 0.00 92 1008.5
20260905045457 73 263 0.0 0.0 0.00 0.00 0.00 92 1008.5
20260905045356 73 263 0.0 0.0 0.00 0.00 0.00 92 1008.5
20260905045255 73 263 0.0 0.0 0.00 0.00 0.00 92 1008.5
20260905045155 73 263 0.0 0.0 0.00 0.00 0.00 92 1008.6
20260905045055 73 263 0.0 0.0 0.00 0.00 0.00 92 1008.6
20260905045030 73 263 0.0 0.0 0.00 0.01 0.00 91 1008.7
20260905045021 73 263 0.0 0.0 0.00 0.00 0.00 91 1008.6
20260905044953 73 263 0.0 0.0 0.00 0.00 0.00 91 1008.6
20260905044852 73 263 0.0 0.0 0.00 0.00 0.00 91 1008.6
20260905044752 73 263 0.0 0.0 0.00 0.00 0.00 91 1008.6
20260905044741 73 263 0.0 0.0 0.00 0.00 0.00 91 1008.6
20260905044652 73 263 0.0 0.0 0.00 0.00 0.00 91 1008.6
20260905044628 73 263 0.0 0.0 0.00 0.00 0.00 91 1008.6
20260905044530 73 263 0.0 0.0 0.00 0.01 0.00 91 1008.7
20260905044450 73 263 0.0 0.0 0.00 0.00 0.00 91 1008.6
20260905044350 73 263 0.0 0.0 0.00 0.00 0.00 91 1008.7
20260905044249 73 263 0.0 0.0 0.00 0.00 0.00 91 1008.7
20260905044149 73 263 0.0 0.0 0.00 0.00 0.00 91 1008.7
20260905044030 73 263 0.0 0.0 0.00 0.01 0.00 91 1008.8
20260905044020 73 263 0.0 0.0 0.00 0.00 0.00 91 1008.7
20260905043948 73 263 0.0 0.0 0.00 0.00 0.00 91 1008.7
20260905043847 73 263 0.0 0.0 0.00 0.00 0.00 91 1008.7
20260905043802 73 263 0.0 0.0 0.00 0.00 0.00 91 1008.7
20260905043757 73 263 0.0 0.0 0.00 0.00 0.00 91 1008.8
20260905043530 73 263 0.0 0.0 0.00 0.01 0.00 91 1008.9
20260905043519 73 263 0.0 0.0 0.00 0.00 0.00 91 1008.7
20260905043448 73 263 0.0 0.0 0.00 0.00 0.00 91 1008.8
20260905043347 73 263 0.0 0.0 0.00 0.00 0.00 91 1008.7
20260905043249 73 263 0.0 0.0 0.00 0.00 0.00 91 1008.7
20260905043242 74 263 0.0 0.0 0.00 0.00 0.00 91 1008.8
20260905043145 74 263 0.0 0.0 0.00 0.00 0.00 91 1008.8
20260905043126 74 263 0.0 0.0 0.00 0.00 0.00 91 1008.8
20260905043030 74 263 0.0 0.0 0.00 0.01 0.00 91 1009.0
20260905042946 74 263 0.0 0.0 0.00 0.00 0.00 91 1008.8
20260905042845 74 263 0.0 0.0 0.00 0.00 0.00 91 1008.8
20260905042745 74 263 0.0 0.0 0.00 0.00 0.00 91 1008.8
20260905042659 74 263 0.0 0.0 0.00 0.00 0.00 91 1008.8
20260905042653 74 263 0.0 0.0 0.00 0.00 0.00 91 1008.8
20260905042530 74 263 0.0 0.0 0.00 0.01 0.00 91 1009.0
20260905042516 74 263 0.0 0.0 0.00 0.00 0.00 91 1008.8
20260905042444 74 263 0.0 0.0 0.00 0.00 0.00 91 1008.8
20260905042357 74 263 0.0 0.0 0.00 0.00 0.00 91 1008.8
20260905042352 74 263 0.0 0.0 0.00 0.00 0.00 91 1008.7
20260905042142 74 263 0.0 0.0 0.00 0.00 0.00 91 1008.8
20260905042030 74 263 0.0 0.0 0.00 0.01 0.00 91 1009.0
20260905042015 74 263 0.0 0.0 0.00 0.00 0.00 91 1008.7
20260905041941 74 263 0.0 0.0 0.00 0.00 0.00 91 1008.8
20260905041841 74 263 0.0 0.0 0.00 0.00 0.00 91 1008.8
20260905041759 74 263 0.0 0.0 0.00 0.00 0.00 91 1008.8
20260905041755 74 263 0.0 0.0 0.00 0.00 0.00 91 1008.8
20260905041749 74 263 0.0 0.0 0.00 0.00 0.00 91 1008.8
20260905041624 74 263 0.0 0.0 0.00 0.00 0.00 91 1008.8
20260905041545 74 263 0.0 0.0 0.00 0.01 0.00 91 1009.1
20260905041440 74 263 0.0 0.0 0.00 0.00 0.00 91 1008.9
20260905041340 74 263 0.0 0.0 0.00 0.00 0.00 91 1008.9
20260905041239 74 263 0.0 0.0 0.00 0.00 0.00 91 1008.8
20260905041139 74 263 0.0 0.0 0.00 0.00 0.00 91 1008.8
20260905041030 74 263 0.0 0.0 0.00 0.01 0.00 91 1009.1
20260905041014 74 263 0.0 0.0 0.00 0.00 0.00 91 1008.8
20260905040938 74 263 0.0 0.0 0.00 0.00 0.00 91 1008.9
20260905040852 74 263 0.0 0.0 0.00 0.00 0.00 91 1008.8
20260905040847 74 263 0.0 0.0 0.00 0.00 0.00 91 1008.8
20260905040651 74 263 0.0 0.0 0.00 0.00 0.00 91 1008.8
20260905040646 74 263 0.0 0.0 0.00 0.00 0.00 91 1008.8
20260905040530 74 263 0.0 0.0 0.00 0.02 0.00 91 1009.0
20260905040514 74 263 0.0 0.0 0.00 0.00 0.00 91 1008.8
20260905040436 74 263 0.0 0.0 0.00 0.00 0.00 91 1008.8
20260905040335 74 263 0.0 0.0 0.00 0.00 0.00 91 1008.8
20260905040235 74 263 0.0 0.0 0.00 0.00 0.00 91 1008.8
20260905040149 74 263 0.0 0.0 0.00 0.00 0.00 91 1008.8
20260905040143 74 263 0.0 0.0 0.00 0.00 0.00 91 1008.8
20260905040030 74 263 0.0 0.0 0.00 0.02 0.00 91 1009.0
20260905040012 74 263 0.0 0.0 0.00 0.00 0.00 91 1008.8
20260905035934 74 263 0.0 0.0 0.00 0.00 0.02 91 1008.8
20260905035832 74 263 0.0 0.0 0.00 0.00 0.02 91 1008.8
20260905035732 74 263 0.0 0.0 0.00 0.00 0.02 91 1008.8
20260905035632 74 263 0.0 0.0 0.00 0.00 0.02 91 1008.8
20260905035545 74 263 0.0 0.0 0.00 0.02 0.02 91 1009.0
20260905035512 74 263 0.0 0.0 0.00 0.00 0.02 91 1008.7
20260905035445 74 263 0.0 0.0 0.00 0.00 0.02 91 1008.8
20260905035440 74 263 0.0 0.0 0.00 0.00 0.02 91 1008.8
20260905035230 74 263 0.0 0.0 0.00 0.00 0.02 91 1008.7
20260905035130 74 263 0.0 0.0 0.00 0.00 0.02 91 1008.8
20260905035030 74 263 0.0 0.0 0.00 0.02 0.02 91 1009.0
20260905035010 74 263 0.0 0.0 0.00 0.00 0.02 91 1008.8
20260905034929 74 263 0.0 0.0 0.00 0.00 0.02 91 1008.8
20260905034829 74 263 0.0 0.0 0.00 0.00 0.02 91 1008.8
20260905034728 74 263 0.0 0.0 0.00 0.00 0.02 91 1008.7
20260905034628 74 263 0.0 0.0 0.00 0.00 0.02 91 1008.7
20260905034530 74 263 0.0 0.0 0.00 0.02 0.02 91 1008.9
20260905034508 74 263 0.0 0.0 0.00 0.00 0.02 91 1008.7
20260905034427 74 263 0.0 0.0 0.00 0.00 0.02 91 1008.7
20260905034327 74 263 0.0 0.0 0.00 0.00 0.02 91 1008.8
20260905034227 74 263 0.0 0.0 0.00 0.00 0.02 91 1008.8
20260905034126 74 263 0.0 0.0 0.00 0.00 0.02 91 1008.8
20260905034030 74 263 0.0 0.0 0.00 0.02 0.02 91 1008.9
20260905034008 74 263 0.0 0.0 0.00 0.00 0.02 91 1008.7
20260905033925 74 263 0.0 0.0 0.00 0.00 0.02 91 1008.7
20260905033839 74 263 0.0 0.0 0.00 0.00 0.02 91 1008.7
20260905033834 74 263 0.0 0.0 0.00 0.00 0.02 91 1008.7
20260905033530 74 263 0.0 0.0 0.00 0.02 0.02 90 1009.0
20260905033508 74 263 0.0 0.0 0.00 0.00 0.02 90 1008.8
20260905033458 74 263 0.0 0.0 0.00 0.00 0.02 90 1008.8
20260905033344 74 263 0.0 0.0 0.00 0.00 0.02 90 1008.8
20260905033231 74 263 0.0 0.0 0.00 0.00 0.02 90 1008.8
20260905033113 74 263 0.0 0.0 0.00 0.00 0.02 90 1008.7
20260905033030 74 263 0.0 0.0 0.00 0.02 0.02 90 1008.9
20260905032919 74 263 0.0 0.0 0.00 0.00 0.02 90 1008.7
20260905032818 74 263 0.0 0.0 0.00 0.00 0.02 90 1008.7
20260905032718 74 263 0.0 0.0 0.00 0.00 0.02 90 1008.7
20260905032600 74 263 0.0 0.0 0.00 0.02 0.02 90 1008.9
20260905032505 74 263 0.0 0.0 0.00 0.00 0.02 90 1008.7
20260905032415 74 263 0.0 0.0 0.00 0.00 0.02 90 1008.7
20260905032314 74 263 0.0 0.0 0.00 0.00 0.02 90 1008.8
20260905032214 74 263 0.0 0.0 0.00 0.00 0.02 90 1008.8
20260905032112 74 263 0.0 0.0 0.00 0.00 0.02 90 1008.8
20260905032030 74 263 0.0 0.0 0.00 0.02 0.02 90 1008.9
20260905032012 74 263 0.0 0.0 0.00 0.00 0.02 90 1008.8
20260905032005 74 263 0.0 0.0 0.00 0.00 0.02 90 1008.7
20260905031925 74 263 0.0 0.0 0.00 0.00 0.02 90 1008.7
20260905031920 74 263 0.0 0.0 0.00 0.00 0.02 90 1008.7
20260905031712 74 263 0.0 0.0 0.00 0.00 0.02 90 1008.7
20260905031626 74 263 0.0 0.0 0.00 0.00 0.02 90 1008.7
20260905031621 74 263 0.0 0.0 0.00 0.00 0.02 90 1008.7
20260905031530 74 263 0.0 0.0 0.00 0.02 0.02 90 1008.9
20260905031505 74 263 0.0 0.0 0.00 0.00 0.02 90 1008.7
20260905031411 74 263 0.0 0.0 0.00 0.00 0.02 89 1008.7
20260905031311 74 263 0.0 0.0 0.00 0.00 0.02 89 1008.7
20260905031210 74 263 0.0 0.0 0.00 0.00 0.02 89 1008.6
20260905031127 74 263 0.0 0.0 0.00 0.00 0.02 89 1008.7
20260905031121 74 263 0.0 0.0 0.00 0.00 0.02 89 1008.7
20260905031030 74 263 0.0 0.0 0.00 0.02 0.02 89 1008.8
20260905031005 74 263 0.0 0.0 0.00 0.00 0.02 89 1008.6
20260905030909 74 263 0.0 0.0 0.00 0.00 0.02 89 1008.6
20260905030809 74 263 0.0 0.0 0.00 0.00 0.02 89 1008.6
20260905030722 74 263 0.0 0.0 0.00 0.00 0.02 89 1008.6
20260905030717 74 263 0.0 0.0 0.00 0.00 0.02 89 1008.6
20260905030530 75 263 0.0 0.0 0.00 0.02 0.02 89 1008.8
20260905030505 74 263 0.0 0.0 0.00 0.00 0.02 89 1008.6
20260905030407 74 263 0.0 0.0 0.00 0.00 0.02 89 1008.6
20260905030306 75 263 0.0 0.0 0.00 0.00 0.02 89 1008.6
20260905030206 75 263 0.0 0.0 0.00 0.00 0.02 89 1008.6
20260905030106 75 263 0.0 0.0 0.00 0.00 0.02 89 1008.6
20260905030030 75 263 0.0 0.0 0.00 0.02 0.02 89 1008.8
20260905030007 75 263 0.0 0.0 0.00 0.00 0.02 89 1008.6
20260905025905 74 263 0.0 0.0 0.00 0.00 0.02 89 1008.6
20260905025806 74 263 0.0 0.0 0.00 0.00 0.02 89 1008.6
20260905025732 74 263 0.0 0.0 0.00 0.00 0.02 89 1008.6
20260905025620 74 263 0.0 0.0 0.00 0.00 0.02 89 1008.6
20260905025530 75 263 0.0 0.0 0.00 0.02 0.02 89 1008.8
20260905025507 74 263 0.0 0.0 0.00 0.00 0.02 89 1008.6
20260905025404 75 263 0.0 0.0 0.00 0.00 0.02 89 1008.6
20260905025306 75 263 0.0 0.0 0.00 0.00 0.02 89 1008.6
20260905025204 74 263 0.0 0.0 0.00 0.00 0.02 89 1008.5
20260905025103 74 263 0.0 0.0 0.00 0.00 0.02 89 1008.6
20260905025030 75 263 0.0 0.0 0.00 0.02 0.02 89 1008.7
20260905025002 75 263 0.0 0.0 0.00 0.00 0.02 89 1008.5
20260905024903 75 263 0.0 0.0 0.00 0.00 0.02 89 1008.5
20260905024802 75 263 0.0 0.0 0.00 0.00 0.02 89 1008.6
20260905024702 75 263 0.0 0.0 0.00 0.00 0.02 89 1008.6
20260905024601 75 263 0.0 0.0 0.00 0.00 0.02 89 1008.5
20260905024530 75 263 0.0 0.0 0.00 0.02 0.02 89 1008.7
20260905024505 75 263 0.0 0.0 0.00 0.00 0.02 89 1008.5
20260905024500 75 263 0.0 0.0 0.00 0.00 0.02 89 1008.5
20260905024359 75 263 0.0 0.0 0.00 0.00 0.02 89 1008.5
20260905024259 75 263 0.0 0.0 0.00 0.00 0.02 89 1008.5
20260905024159 75 263 0.0 0.0 0.00 0.00 0.02 89 1008.5
20260905024058 75 263 0.0 0.0 0.00 0.00 0.02 89 1008.5
20260905024030 75 263 0.0 0.0 0.00 0.02 0.02 89 1008.7
20260905024004 75 263 0.0 0.0 0.00 0.00 0.02 89 1008.5
20260905023958 75 263 0.0 0.0 0.00 0.00 0.02 89 1008.5
20260905023911 75 263 0.0 0.0 0.00 0.00 0.02 89 1008.6
20260905023907 75 263 0.0 0.0 0.00 0.00 0.02 89 1008.6
20260905023711 75 263 0.0 0.0 0.00 0.00 0.02 89 1008.6
20260905023707 75 263 0.0 0.0 0.00 0.00 0.02 89 1008.6
20260905023530 75 263 0.0 0.0 0.00 0.02 0.02 89 1008.8
20260905023503 75 263 0.0 0.0 0.00 0.00 0.02 89 1008.6
20260905023457 75 263 0.0 0.0 0.00 0.00 0.02 89 1008.6
20260905023357 75 263 0.0 0.0 0.00 0.00 0.02 88 1008.6
20260905023256 75 263 0.0 0.0 0.00 0.00 0.02 88 1008.7
20260905023156 75 263 0.0 0.0 0.00 0.00 0.02 89 1008.7
20260905023056 75 263 0.0 0.0 0.00 0.00 0.02 89 1008.6
20260905023030 75 263 0.0 0.0 0.00 0.02 0.02 89 1008.8
20260905023003 75 263 0.0 0.0 0.00 0.00 0.02 89 1008.6
20260905022955 75 263 0.0 0.0 0.00 0.00 0.02 89 1008.6
20260905022855 75 263 0.0 0.0 0.00 0.00 0.02 89 1008.6
20260905022755 75 263 0.0 0.0 0.00 0.00 0.02 89 1008.6
20260905022654 75 263 0.0 0.0 0.00 0.00 0.02 89 1008.5
20260905022554 75 263 0.0 0.0 0.00 0.00 0.02 89 1008.5
20260905022530 75 263 0.0 0.0 0.00 0.02 0.02 89 1008.8
20260905022502 75 263 0.0 0.0 0.00 0.00 0.02 89 1008.6
20260905022454 75 263 0.0 0.0 0.00 0.00 0.02 89 1008.6
20260905022430 75 263 0.0 0.0 0.00 0.00 0.02 88 1008.6
20260905022424 75 263 0.0 0.0 0.00 0.00 0.02 89 1008.5
20260905022311 75 263 0.0 0.0 0.00 0.00 0.02 88 1008.6
20260905022030 75 263 0.0 0.0 0.00 0.02 0.02 88 1008.7
20260905022003 75 263 0.0 0.0 0.00 0.00 0.02 88 1008.5
20260905021954 75 263 0.0 0.0 0.00 0.00 0.02 88 1008.5
20260905021947 75 263 0.0 0.0 0.00 0.00 0.02 89 1008.5
20260905021942 75 263 0.0 0.0 0.00 0.00 0.02 89 1008.5
20260905021937 75 263 0.0 0.0 0.00 0.00 0.02 88 1008.5
20260905021823 75 263 0.0 0.0 0.00 0.00 0.02 88 1008.5
20260905021600 75 263 0.0 0.0 0.00 0.02 0.02 89 1008.7
20260905021556 75 263 0.0 0.0 0.00 0.00 0.02 89 1008.5
20260905021350 75 263 0.0 0.0 0.00 0.00 0.02 89 1008.5
20260905021249 75 263 0.0 0.0 0.00 0.00 0.02 89 1008.5
20260905021225 75 263 0.0 0.0 0.00 0.00 0.02 89 1008.5
20260905021148 75 263 0.0 0.0 0.00 0.00 0.02 89 1008.5
20260905021111 75 263 0.0 0.0 0.00 0.00 0.02 89 1008.5
20260905021045 75 263 0.0 0.0 0.00 0.02 0.02 89 1008.7
20260905020947 75 263 0.0 0.0 0.00 0.00 0.02 89 1008.5
20260905020846 75 263 0.0 0.0 0.00 0.00 0.02 89 1008.5
20260905020746 75 263 0.0 0.0 0.00 0.00 0.02 89 1008.5
20260905020646 75 263 0.0 0.0 0.00 0.00 0.02 89 1008.5
20260905020545 75 263 0.0 0.0 0.00 0.00 0.02 89 1008.5
20260905020530 75 263 0.0 0.0 0.00 0.02 0.02 89 1008.7
20260905020444 75 263 0.0 0.0 0.00 0.00 0.02 88 1008.6
20260905020344 75 263 0.0 0.0 0.00 0.00 0.02 88 1008.6
20260905020243 75 263 0.0 0.0 0.00 0.00 0.02 88 1008.6
20260905020143 75 263 0.0 0.0 0.00 0.00 0.02 89 1008.6
20260905020043 75 263 0.0 0.0 0.00 0.00 0.02 88 1008.6
20260905020030 75 263 0.0 0.0 0.00 0.02 0.02 88 1008.7
20260905015955 75 263 0.0 0.0 0.00 0.00 0.02 88 1008.6
20260905015951 75 263 0.0 0.0 0.00 0.00 0.02 88 1008.6
20260905015740 75 263 0.0 0.0 0.00 0.00 0.02 88 1008.7
20260905015718 75 263 0.0 0.0 0.00 0.00 0.02 88 1008.7
20260905015640 75 263 0.0 0.0 0.00 0.00 0.02 88 1008.7
20260905015609 75 263 0.0 0.0 0.00 0.00 0.02 88 1008.7
20260905015530 75 263 0.0 0.0 0.00 0.02 0.02 88 1008.8
20260905015440 75 263 0.0 0.0 0.00 0.00 0.02 88 1008.7
20260905015340 75 263 0.0 0.0 0.00 0.00 0.02 88 1008.7
20260905015239 75 263 0.0 0.0 0.00 0.00 0.02 88 1008.7
20260905015138 75 263 0.0 0.0 0.00 0.00 0.02 88 1008.8
20260905015103 75 263 0.0 0.0 0.00 0.00 0.02 88 1008.8
20260905015055 75 263 0.0 0.0 0.00 0.00 0.02 88 1008.7
20260905015031 75 263 0.0 0.0 0.00 0.02 0.02 88 1008.8
20260905014944 75 263 0.0 0.0 0.00 0.00 0.02 88 1008.7
20260905014735 75 263 0.0 0.0 0.00 0.00 0.02 88 1008.7
20260905014649 75 263 0.0 0.0 0.00 0.00 0.02 88 1008.7
20260905014645 75 263 0.0 0.0 0.00 0.00 0.02 88 1008.7
20260905014530 75 263 0.0 0.0 0.00 0.02 0.02 88 1008.8
20260905014434 75 263 0.0 0.0 0.00 0.00 0.02 88 1008.7
20260905014334 75 263 0.0 0.0 0.00 0.00 0.02 88 1008.7
20260905014234 75 263 0.0 0.0 0.00 0.00 0.02 87 1008.7
20260905014133 75 263 0.0 0.0 0.00 0.00 0.02 87 1008.7
20260905014033 75 263 0.0 0.0 0.00 0.00 0.02 87 1008.7
20260905014030 75 263 0.0 0.0 0.00 0.02 0.02 87 1008.7
20260905013931 75 263 0.0 0.0 0.00 0.00 0.02 87 1008.7
20260905013831 75 263 0.0 0.0 0.00 0.00 0.02 87 1008.7
20260905013732 75 263 0.0 0.0 0.00 0.00 0.02 87 1008.7
20260905013630 75 263 0.0 0.0 0.00 0.00 0.02 88 1008.7
20260905013545 75 263 0.0 0.0 0.00 0.02 0.02 88 1008.8
20260905013530 75 263 0.0 0.0 0.00 0.00 0.02 88 1008.8
20260905013430 75 263 0.0 0.0 0.00 0.00 0.02 88 1008.7
20260905013344 75 263 0.0 0.0 0.00 0.00 0.02 87 1008.7
20260905013339 75 263 0.0 0.0 0.00 0.00 0.02 88 1008.7
20260905013220 75 263 0.0 0.0 0.00 0.00 0.02 87 1008.7
20260905013216 75 263 0.0 0.0 0.00 0.00 0.02 87 1008.7
20260905013211 75 263 0.0 0.0 0.00 0.00 0.02 87 1008.7
20260905013031 75 263 0.0 0.0 0.00 0.02 0.02 87 1008.7
20260905012930 75 263 0.0 0.0 0.00 0.00 0.02 87 1008.7
20260905012828 75 263 0.0 0.0 0.00 0.00 0.02 87 1008.7
20260905012728 76 263 0.0 0.0 0.00 0.00 0.02 87 1008.7
20260905012628 76 263 0.0 0.0 0.00 0.00 0.02 87 1008.6
20260905012545 76 263 0.0 0.0 0.00 0.02 0.02 87 1008.8
20260905012541 76 263 0.0 0.0 0.00 0.00 0.02 87 1008.7
20260905012533 76 263 0.0 0.0 0.00 0.00 0.02 87 1008.7
20260905012325 76 263 0.0 0.0 0.00 0.00 0.02 87 1008.7
20260905012225 76 263 0.0 0.0 0.00 0.00 0.02 87 1008.7
20260905012125 76 263 0.0 0.0 0.00 0.00 0.02 87 1008.7
20260905012045 76 263 0.0 0.0 0.00 0.02 0.02 87 1008.9
20260905012024 76 263 0.0 0.0 0.00 0.00 0.02 87 1008.7
20260905011924 76 263 0.0 0.0 0.00 0.00 0.02 87 1008.8
20260905011824 76 263 0.0 0.0 0.00 0.00 0.02 87 1008.8
20260905011723 76 263 0.0 0.0 0.00 0.00 0.02 87 1008.8
20260905011712 76 263 0.0 0.0 0.00 0.00 0.02 87 1008.8
20260905011623 76 263 0.0 0.0 0.00 0.00 0.02 87 1008.8
20260905011557 76 263 0.0 0.0 0.00 0.00 0.02 87 1008.8
20260905011530 76 263 0.0 0.0 0.00 0.02 0.02 87 1008.9
20260905011422 76 263 0.0 0.0 0.00 0.00 0.02 87 1008.8
20260905011322 76 263 0.0 0.0 0.00 0.00 0.02 87 1008.8
20260905011222 76 263 0.0 0.0 0.00 0.00 0.02 86 1008.8
20260905011122 76 263 0.0 0.0 0.00 0.00 0.02 86 1008.8
20260905011035 76 263 0.0 0.0 0.00 0.00 0.02 86 1008.8
20260905011030 76 263 0.0 0.0 0.00 0.02 0.02 86 1008.9
20260905011027 76 263 0.0 0.0 0.00 0.00 0.02 86 1008.8
20260905010819 76 263 0.0 0.0 0.00 0.00 0.02 86 1008.7
20260905010719 76 263 0.0 0.0 0.00 0.00 0.02 86 1008.7
20260905010619 76 263 0.0 0.0 0.00 0.00 0.02 86 1008.7
20260905010530 76 263 0.0 0.0 0.00 0.02 0.02 86 1008.8
20260905010518 76 263 0.0 0.0 0.00 0.00 0.02 86 1008.7
20260905010418 76 263 0.0 0.0 0.00 0.00 0.02 86 1008.7
20260905010331 76 263 0.0 0.0 0.00 0.00 0.02 86 1008.7
20260905010218 76 263 0.0 0.0 0.00 0.00 0.02 86 1008.7
20260905010118 76 263 0.0 0.0 0.00 0.00 0.02 86 1008.7
20260905010100 76 263 0.0 0.0 0.00 0.02 0.02 86 1008.7
20260905010051 76 263 0.0 0.0 0.00 0.00 0.02 86 1008.7
20260905005917 76 263 0.0 0.0 0.00 0.00 0.02 86 1008.6
20260905005816 76 263 0.0 0.0 0.00 0.00 0.02 86 1008.7
20260905005732 76 263 0.0 0.0 0.00 0.00 0.02 86 1008.7
20260905005728 76 263 0.0 0.0 0.00 0.00 0.02 85 1008.7
20260905005723 76 263 0.0 0.0 0.00 0.00 0.02 86 1008.7
20260905005550 76 263 0.0 0.0 0.00 0.00 0.02 85 1008.7
20260905005530 76 263 0.0 0.0 0.00 0.02 0.02 85 1008.7
20260905005413 76 263 0.0 0.0 0.00 0.00 0.02 85 1008.7
20260905005313 76 263 0.0 0.0 0.00 0.00 0.02 85 1008.7
20260905005213 76 263 0.0 0.0 0.00 0.00 0.02 85 1008.7
20260905005112 76 263 0.0 0.0 0.00 0.00 0.02 85 1008.7
20260905005100 76 263 0.0 0.0 0.00 0.02 0.02 85 1008.8
20260905005012 76 263 0.0 0.0 0.00 0.00 0.02 85 1008.7
20260905004924 76 263 0.0 0.0 0.00 0.00 0.02 85 1008.8
20260905004920 76 263 0.0 0.0 0.00 0.00 0.02 85 1008.8
20260905004711 76 263 0.0 0.0 0.00 0.00 0.02 85 1008.8
20260905004611 76 263 0.0 0.0 0.00 0.00 0.02 85 1008.7
20260905004531 76 263 0.0 0.0 0.00 0.02 0.02 85 1008.7
20260905004523 76 263 0.0 0.0 0.00 0.00 0.02 85 1008.7
20260905004515 76 263 0.0 0.0 0.00 0.00 0.02 85 1008.7
20260905004321 76 263 0.0 0.0 0.00 0.00 0.02 85 1008.7
20260905004317 76 263 0.0 0.0 0.00 0.00 0.02 85 1008.7
20260905004106 76 263 0.0 0.0 0.00 0.00 0.02 85 1008.7
20260905004030 76 263 0.0 0.0 0.00 0.02 0.02 85 1008.7
20260905004020 76 263 0.0 0.0 0.00 0.00 0.02 85 1008.7
20260905004012 76 263 0.0 0.0 0.00 0.00 0.02 85 1008.7
20260905003805 76 263 0.0 0.0 0.00 0.00 0.02 85 1008.7
20260905003749 76 263 0.0 0.0 0.00 0.00 0.02 85 1008.6
20260905003705 76 263 0.0 0.0 0.00 0.00 0.02 85 1008.6
20260905003641 76 263 0.0 0.0 0.00 0.00 0.02 85 1008.6
20260905003631 76 263 0.0 0.0 0.00 0.00 0.02 85 1008.6
20260905003530 76 263 0.0 0.0 0.00 0.02 0.02 85 1008.6
20260905003413 76 263 0.0 0.0 0.00 0.00 0.02 85 1008.6
20260905003202 76 263 0.0 0.0 0.00 0.00 0.02 85 1008.6
20260905003102 76 263 0.0 0.0 0.00 0.00 0.02 84 1008.6
20260905003046 76 263 0.0 0.0 0.00 0.00 0.02 84 1008.6
20260905003042 76 263 0.0 0.0 0.00 0.00 0.02 84 1008.6
20260905003038 76 263 0.0 0.0 0.00 0.00 0.02 84 1008.6
20260905003025 76 263 0.0 0.0 0.00 0.00 0.02 84 1008.6
20260905002559 76 263 0.0 0.0 0.00 0.00 0.02 84 1008.7
20260905002530 77 263 0.0 0.0 0.00 0.02 0.02 84 1008.6
20260905002436 76 263 0.0 0.0 0.00 0.00 0.02 84 1008.6
20260905002358 77 263 0.0 0.0 0.00 0.00 0.02 84 1008.6
20260905002258 77 263 0.0 0.0 0.00 0.00 0.02 84 1008.6
20260905002158 77 263 0.0 0.0 0.00 0.00 0.02 84 1008.6
20260905002057 77 263 0.0 0.0 0.00 0.00 0.02 83 1008.6
20260905002031 77 263 0.0 0.0 0.00 0.02 0.02 83 1008.5
20260905001934 77 263 0.0 0.0 0.00 0.00 0.02 83 1008.5
20260905001857 77 263 0.0 0.0 0.00 0.00 0.02 83 1008.6
20260905001756 77 263 0.0 0.0 0.00 0.00 0.02 83 1008.5
20260905001656 77 263 0.0 0.0 0.00 0.00 0.02 83 1008.5
20260905001607 77 263 0.0 0.0 0.00 0.00 0.02 83 1008.5
20260905001558 77 263 0.0 0.0 0.00 0.00 0.02 83 1008.5
20260905001530 77 263 0.0 0.0 0.00 0.02 0.02 83 1008.5
20260905001445 77 263 0.0 0.0 0.00 0.00 0.02 83 1008.5
20260905001439 77 263 0.0 0.0 0.00 0.00 0.02 82 1008.5
20260905001327 77 263 0.0 0.0 0.00 0.00 0.02 82 1008.4
20260905001321 77 263 0.0 0.0 0.00 0.00 0.02 82 1008.5
20260905001030 77 263 0.0 0.0 0.00 0.02 0.02 82 1008.4
20260905000934 77 263 0.0 0.0 0.00 0.00 0.02 82 1008.4
20260905000853 77 263 0.0 0.0 0.00 0.00 0.02 82 1008.3
20260905000753 78 263 0.0 0.0 0.00 0.00 0.02 82 1008.4
20260905000652 78 263 0.0 0.0 0.00 0.00 0.02 82 1008.3
20260905000552 78 263 0.0 0.0 0.00 0.00 0.02 82 1008.4
20260905000530 78 263 0.0 0.0 0.00 0.02 0.02 82 1008.3
20260905000432 78 263 0.0 0.0 0.00 0.00 0.02 82 1008.3
20260905000351 78 263 0.0 0.0 0.00 0.00 0.02 82 1008.3
20260905000251 78 263 0.0 0.0 0.00 0.00 0.02 82 1008.3
20260905000204 78 263 0.0 0.0 0.00 0.00 0.02 81 1008.3
20260905000159 78 263 0.0 0.0 0.00 0.00 0.02 81 1008.3
20260905000030 78 263 0.0 0.0 0.00 0.02 0.02 81 1008.3
20260904235930 78 263 0.0 0.0 0.00 0.00 0.02 81 1008.3
20260904235849 78 263 0.0 0.0 0.00 0.00 0.02 81 1008.3
20260904235749 78 263 0.0 0.0 0.00 0.00 0.02 80 1008.3
20260904235647 78 263 0.0 0.0 0.00 0.00 0.02 80 1008.3
20260904235548 78 263 0.0 0.0 0.00 0.00 0.02 80 1008.3
20260904235545 78 263 0.0 0.0 0.00 0.02 0.02 80 1008.2
20260904235507 78 263 0.0 0.0 0.00 0.00 0.02 80 1008.2
20260904235454 78 263 0.0 0.0 0.00 0.00 0.02 80 1008.2
20260904235246 78 263 0.0 0.0 0.00 0.00 0.02 80 1008.2
20260904235159 78 263 0.0 0.0 0.00 0.00 0.02 79 1008.2
20260904235155 78 263 0.0 0.0 0.00 0.00 0.02 79 1008.2
20260904235030 78 263 0.0 0.0 0.00 0.02 0.02 79 1008.2
20260904234927 78 263 0.0 0.0 0.00 0.00 0.02 79 1008.2
20260904234846 78 263 0.0 0.0 0.00 0.00 0.02 79 1008.2
20260904234746 78 263 0.0 0.0 0.00 0.00 0.02 79 1008.2
20260904234645 78 263 0.0 0.0 0.00 0.00 0.02 78 1008.2
20260904234544 78 263 0.0 0.0 0.00 0.00 0.02 78 1008.2
20260904234531 79 263 0.0 0.0 0.00 0.02 0.02 78 1008.2
20260904234444 78 263 0.0 0.0 0.00 0.00 0.02 78 1008.2
20260904234428 79 263 0.0 0.0 0.00 0.00 0.02 78 1008.2
20260904234343 79 263 0.0 0.0 0.00 0.00 0.02 78 1008.2
20260904234243 79 263 0.0 0.0 0.00 0.00 0.02 77 1008.2
20260904234230 79 263 0.0 0.0 0.00 0.00 0.02 78 1008.2
20260904234144 79 263 0.0 0.0 0.00 0.00 0.02 77 1008.2
20260904234120 79 263 0.0 0.0 0.00 0.00 0.02 77 1008.2
20260904234111 79 263 0.0 0.0 0.00 0.00 0.02 78 1008.2
20260904234045 79 263 0.0 0.0 0.00 0.02 0.02 78 1008.2
20260904233851 79 263 0.0 0.0 0.00 0.00 0.02 78 1008.2
20260904233642 79 263 0.0 0.0 0.00 0.00 0.02 78 1008.2
20260904233542 79 263 0.0 0.0 0.00 0.00 0.02 78 1008.2
20260904233530 79 263 0.0 0.0 0.00 0.02 0.02 78 1008.2
20260904233427 79 263 0.0 0.0 0.00 0.00 0.02 78 1008.2
20260904233417 80 263 0.0 0.0 0.00 0.00 0.02 76 1008.1
20260904233412 79 263 0.0 0.0 0.00 0.00 0.02 77 1008.1
20260904233259 80 263 0.0 0.0 0.00 0.00 0.02 75 1008.2
20260904233254 79 263 0.0 0.0 0.00 0.00 0.02 77 1008.1
20260904233245 79 263 0.0 0.0 0.00 0.00 0.02 76 1008.1
20260904233030 80 263 0.0 0.0 0.00 0.02 0.02 76 1008.2
20260904233025 80 263 0.0 0.0 0.00 0.00 0.02 75 1008.2
20260904233018 80 263 0.0 0.0 0.00 0.00 0.02 76 1008.2
20260904233011 80 263 0.0 0.0 0.00 0.00 0.02 75 1008.2
20260904232530 80 263 0.0 0.0 0.00 0.02 0.02 74 1008.2
20260904232523 80 263 0.0 0.0 0.00 0.00 0.02 75 1008.1
20260904232518 80 263 0.0 0.0 0.00 0.00 0.02 76 1008.1
20260904232506 80 263 0.0 0.0 0.00 0.00 0.02 74 1008.2
20260904232353 80 263 0.0 0.0 0.00 0.00 0.02 74 1008.1
20260904232045 80 263 0.0 0.0 0.00 0.02 0.02 75 1008.1
20260904232040 80 263 0.0 0.0 0.00 0.00 0.02 75 1008.1
20260904232031 80 263 0.0 0.0 0.00 0.00 0.02 75 1008.1
20260904231834 80 263 0.0 0.0 0.00 0.00 0.02 75 1008.1
20260904231746 80 263 0.0 0.0 0.00 0.00 0.02 73 1008.1
20260904231742 80 263 0.0 0.0 0.00 0.00 0.02 74 1008.1
20260904231559 80 263 0.0 0.0 0.00 0.00 0.02 74 1008.1
20260904231531 81 263 0.0 0.0 0.00 0.02 0.02 74 1008.1
20260904231439 80 263 0.0 0.0 0.00 0.00 0.02 74 1008.1
20260904231231 81 263 0.0 0.0 0.00 0.00 0.02 73 1008.0
20260904231152 81 263 0.0 0.0 0.00 0.00 0.02 73 1008.1
20260904231039 81 263 0.0 0.0 0.00 0.00 0.02 73 1008.0
20260904231030 81 263 0.0 0.0 0.00 0.02 0.02 73 1008.1
20260904230923 81 263 0.0 0.0 0.00 0.00 0.02 73 1008.1
20260904230843 81 263 0.0 0.0 0.00 0.00 0.02 72 1008.1
20260904230839 81 263 0.0 0.0 0.00 0.00 0.02 73 1008.1
20260904230628 81 263 0.0 0.0 0.00 0.00 0.02 73 1008.2
20260904230542 81 263 0.0 0.0 0.00 0.00 0.02 73 1008.2
20260904230537 81 263 0.0 0.0 0.00 0.00 0.02 73 1008.1
20260904230530 81 263 0.0 0.0 0.00 0.02 0.02 73 1008.2
20260904230420 81 263 0.0 0.0 0.00 0.00 0.02 73 1008.2
20260904230403 81 263 0.0 0.0 0.00 0.00 0.02 72 1008.2
20260904230251 81 263 0.0 0.0 0.00 0.00 0.02 72 1008.3
20260904230245 81 263 0.0 0.0 0.00 0.00 0.02 72 1008.2
20260904230030 81 263 0.0 0.0 0.00 0.02 0.02 72 1008.3
20260904225919 81 263 0.0 0.0 0.00 0.00 0.02 72 1008.3
20260904225825 81 263 0.0 0.0 0.00 0.00 0.02 72 1008.3
20260904225725 81 263 0.0 0.0 0.00 0.00 0.02 72 1008.3
20260904225637 81 263 0.0 0.0 0.00 0.00 0.02 71 1008.3
20260904225633 81 263 0.0 0.0 0.00 0.00 0.02 71 1008.3
20260904225531 81 263 0.0 0.0 0.00 0.02 0.02 71 1008.2
20260904225419 81 263 0.0 0.0 0.00 0.00 0.02 71 1008.2
20260904225323 81 263 0.0 0.0 0.00 0.00 0.02 71 1008.3
20260904225223 81 263 0.0 0.0 0.00 0.00 0.02 71 1008.2
20260904225120 82 263 0.0 0.0 0.00 0.00 0.02 71 1008.3
20260904225030 82 263 0.0 0.0 0.00 0.02 0.02 70 1008.2
20260904225019 82 263 0.0 0.0 0.00 0.00 0.02 71 1008.3
20260904224939 82 263 0.0 0.0 0.00 0.00 0.02 71 1008.3
20260904224928 82 263 0.0 0.0 0.00 0.00 0.02 71 1008.3
20260904224718 82 263 0.0 0.0 0.00 0.00 0.02 71 1008.3
20260904224618 82 263 0.0 0.0 0.00 0.00 0.02 71 1008.3
20260904224530 82 263 0.0 0.0 0.00 0.02 0.02 71 1008.2
20260904224518 82 263 0.0 0.0 0.00 0.00 0.02 71 1008.3
20260904224416 82 263 0.0 0.0 0.00 0.00 0.02 71 1008.3
20260904224329 82 263 0.0 0.0 0.00 0.00 0.02 72 1008.3
20260904224324 82 263 0.0 0.0 0.00 0.00 0.02 72 1008.4
20260904224115 82 263 0.0 0.0 0.00 0.00 0.02 72 1008.3
20260904224030 82 263 0.0 0.0 0.00 0.02 0.02 72 1008.2
20260904224015 82 263 0.0 0.0 0.00 0.00 0.02 72 1008.3
20260904223914 82 263 0.0 0.0 0.00 0.00 0.02 72 1008.3
20260904223812 82 263 0.0 0.0 0.00 0.00 0.02 72 1008.4
20260904223753 82 263 0.0 0.0 0.00 0.00 0.02 71 1008.4
20260904223748 82 263 0.0 0.0 0.00 0.00 0.02 71 1008.4
20260904223635 82 263 0.0 0.0 0.00 0.00 0.02 71 1008.4
20260904223530 82 263 0.0 0.0 0.00 0.02 0.02 71 1008.4
20260904223411 82 263 0.0 0.0 0.00 0.00 0.02 71 1008.5
20260904223323 82 263 0.0 0.0 0.00 0.00 0.02 69 1008.5
20260904223319 82 263 0.0 0.0 0.00 0.00 0.02 70 1008.5
20260904223109 82 263 0.0 0.0 0.00 0.00 0.02 69 1008.5
20260904223100 82 263 0.0 0.0 0.00 0.02 0.02 69 1008.4
20260904223025 82 263 0.0 0.0 0.00 0.00 0.02 69 1008.5
20260904223016 82 263 0.0 0.0 0.00 0.00 0.02 69 1008.5
20260904222904 82 263 0.0 0.0 0.00 0.00 0.02 69 1008.6
20260904222900 82 263 0.0 0.0 0.00 0.00 0.02 69 1008.5
20260904222853 82 263 0.0 0.0 0.00 0.00 0.02 69 1008.5
20260904222530 83 263 0.0 0.0 0.00 0.02 0.02 70 1008.4
20260904222522 83 263 0.0 0.0 0.00 0.00 0.02 70 1008.5
20260904222512 83 263 0.0 0.0 0.00 0.00 0.02 70 1008.5
20260904222306 83 263 0.0 0.0 0.00 0.00 0.02 70 1008.6
20260904222205 83 263 0.0 0.0 0.00 0.00 0.02 69 1008.6
20260904222131 83 263 0.0 0.0 0.00 0.00 0.02 68 1008.5
20260904222105 83 263 0.0 0.0 0.00 0.00 0.02 69 1008.5
20260904222030 83 263 0.0 0.0 0.00 0.02 0.02 68 1008.4
20260904222018 83 263 0.0 0.0 0.00 0.00 0.02 68 1008.5
20260904221904 83 263 0.0 0.0 0.00 0.00 0.02 68 1008.5
20260904221805 83 263 0.0 0.0 0.00 0.00 0.02 68 1008.5
20260904221758 83 266 0.0 0.0 0.00 0.00 0.02 68 1008.6
20260904221754 83 267 0.0 0.0 0.00 0.00 0.02 68 1008.6
20260904221747 83 263 0.0 0.0 0.00 0.00 0.02 68 1008.5
20260904221600 83 267 0.0 0.0 0.00 0.02 0.02 68 1008.5
20260904221525 83 267 0.0 0.0 0.00 0.00 0.02 68 1008.6
20260904221515 83 267 0.0 0.0 0.00 0.00 0.02 68 1008.6
20260904221159 83 267 0.0 0.0 0.00 0.00 0.02 68 1008.6
20260904221059 83 267 0.0 0.0 0.00 0.00 0.02 68 1008.6
20260904221030 83 267 0.0 0.0 0.00 0.02 0.02 68 1008.5
20260904220959 83 267 0.0 0.0 0.00 0.00 0.02 68 1008.6
20260904220908 83 267 0.0 0.0 0.00 0.00 0.02 69 1008.6
20260904220858 83 267 0.0 0.0 0.00 0.00 0.02 69 1008.5
20260904220758 83 267 0.0 0.0 0.00 0.00 0.02 69 1008.5
20260904220657 83 267 0.0 0.0 0.00 0.00 0.02 68 1008.5
20260904220557 83 267 0.0 0.0 0.00 0.00 0.02 68 1008.5
20260904220531 83 267 0.0 0.0 0.00 0.02 0.02 68 1008.4
20260904220457 83 267 0.0 0.0 0.00 0.00 0.02 69 1008.5
20260904220407 83 267 0.0 0.0 0.00 0.00 0.02 67 1008.5
20260904220356 83 267 0.0 0.0 0.00 0.00 0.02 67 1008.5
20260904220256 83 266 0.0 0.0 0.00 0.00 0.02 68 1008.5
20260904220156 83 266 0.0 0.0 0.00 0.00 0.02 68 1008.5
20260904220054 83 266 0.0 0.0 0.00 0.00 0.02 66 1008.5
20260904220030 83 266 0.0 0.0 0.00 0.02 0.02 67 1008.3
20260904215955 83 266 0.0 0.0 0.00 0.00 0.02 67 1008.4
20260904215923 83 266 0.0 0.0 0.00 0.00 0.02 66 1008.4
20260904215917 83 266 0.0 0.0 0.00 0.00 0.02 66 1008.5
20260904215803 83 266 0.0 0.0 0.00 0.00 0.02 66 1008.5
20260904215553 83 266 0.0 0.0 0.00 0.00 0.02 66 1008.4
20260904215530 84 266 0.0 0.0 0.00 0.02 0.02 66 1008.3
20260904215513 83 266 0.0 0.0 0.00 0.00 0.02 66 1008.5
20260904215500 83 266 0.0 0.0 0.00 0.00 0.02 66 1008.4
20260904215251 83 266 0.0 0.0 0.00 0.00 0.02 66 1008.5
20260904215206 84 266 0.0 0.0 0.00 0.00 0.02 66 1008.5
20260904215201 84 266 0.0 0.0 0.00 0.00 0.02 66 1008.5
20260904215045 84 266 0.0 0.0 0.00 0.02 0.02 66 1008.4
20260904214950 84 266 0.0 0.0 0.00 0.00 0.02 66 1008.5
20260904214906 84 266 0.0 0.0 0.00 0.00 0.02 66 1008.5
20260904214851 84 266 0.0 0.0 0.00 0.00 0.02 66 1008.5
20260904214750 84 266 0.0 0.0 0.00 0.00 0.02 66 1008.6
20260904214650 84 266 0.0 0.0 0.00 0.00 0.02 66 1008.5
20260904214549 84 266 0.0 0.0 0.00 0.00 0.02 65 1008.6
20260904214530 84 266 0.0 0.0 0.00 0.02 0.02 65 1008.5
20260904214448 84 266 0.0 0.0 0.00 0.00 0.02 65 1008.6
20260904214405 84 266 0.0 0.0 0.00 0.00 0.02 65 1008.6
20260904214348 84 266 0.0 0.0 0.00 0.00 0.02 65 1008.6
20260904214248 84 266 0.0 0.0 0.00 0.00 0.02 65 1008.6
20260904214146 84 266 0.0 0.0 0.00 0.00 0.02 64 1008.6
20260904214046 84 266 0.0 0.0 0.00 0.00 0.02 64 1008.6
20260904214030 84 266 0.0 0.0 0.00 0.02 0.02 64 1008.4
20260904213946 84 266 0.0 0.0 0.00 0.00 0.02 64 1008.5
20260904213906 84 266 0.0 0.0 0.00 0.00 0.02 64 1008.6
20260904213900 84 266 0.0 0.0 0.00 0.00 0.02 64 1008.6
20260904213855 84 266 0.0 0.0 0.00 0.00 0.02 64 1008.6
20260904213643 84 266 0.0 0.0 0.00 0.00 0.02 64 1008.6
20260904213542 84 266 0.0 0.0 0.00 0.00 0.02 64 1008.5
20260904213530 84 266 0.0 0.0 0.00 0.02 0.02 64 1008.5
20260904213441 84 265 0.0 0.0 0.00 0.00 0.02 64 1008.6
20260904213405 84 265 0.0 0.0 0.00 0.00 0.02 65 1008.6
20260904213341 84 265 0.0 0.0 0.00 0.00 0.02 65 1008.6
20260904213241 84 265 0.0 0.0 0.00 0.00 0.02 64 1008.6
20260904213140 84 268 0.0 0.0 0.00 0.00 0.02 64 1008.6
20260904213040 85 268 0.0 0.0 0.00 0.00 0.02 64 1008.6
20260904213030 85 268 0.0 0.0 0.00 0.02 0.02 64 1008.5
20260904212940 85 268 0.0 0.0 0.00 0.00 0.02 63 1008.6
20260904212902 85 268 0.0 0.0 0.00 0.00 0.02 63 1008.6
20260904212839 85 268 0.0 0.0 0.00 0.00 0.02 63 1008.6
20260904212752 85 302 0.0 0.0 0.00 0.00 0.02 63 1008.6
20260904212747 85 268 0.0 0.0 0.00 0.00 0.02 62 1008.6
20260904212604 85 308 0.0 0.0 0.00 0.00 0.02 63 1008.6
20260904212531 85 308 0.0 0.0 0.00 0.02 0.02 63 1008.4
20260904212451 85 308 0.0 0.0 0.00 0.00 0.02 63 1008.5
20260904212442 85 308 0.0 0.0 0.00 0.00 0.02 63 1008.5
20260904212235 85 254 0.0 0.0 0.00 0.00 0.02 63 1008.5
20260904212135 85 254 0.0 0.0 0.00 0.00 0.02 62 1008.6
20260904212035 85 254 0.0 0.0 0.00 0.00 0.02 62 1008.6
20260904212030 85 254 0.0 0.0 0.00 0.02 0.02 62 1008.4
20260904211935 85 252 0.0 0.0 0.00 0.00 0.02 63 1008.5
20260904211900 85 246 0.0 0.0 0.00 0.00 0.02 63 1008.5
20260904211834 85 246 0.0 0.0 0.00 0.00 0.02 62 1008.5
20260904211734 85 245 0.0 0.0 0.00 0.00 0.02 62 1008.4
20260904211634 85 228 0.0 0.0 0.00 0.00 0.02 62 1008.4
20260904211601 85 228 0.0 0.0 0.00 0.00 0.02 62 1008.4
20260904211530 85 228 0.0 0.0 0.00 0.02 0.02 61 1008.3
20260904211448 85 228 0.0 0.0 0.00 0.00 0.02 61 1008.4
20260904211440 85 220 0.0 0.0 0.00 0.00 0.02 61 1008.4
20260904211233 85 271 0.0 0.0 0.00 0.00 0.02 61 1008.4
20260904211132 85 227 0.0 0.0 0.00 0.00 0.02 61 1008.4
20260904211032 85 355 0.0 0.0 0.00 0.00 0.02 62 1008.5
20260904211030 86 355 0.0 0.0 0.00 0.02 0.02 62 1008.5
20260904210932 85 355 0.0 0.0 0.00 0.00 0.02 62 1008.5
20260904210858 85 355 0.0 0.0 0.00 0.00 0.02 61 1008.5
20260904210831 85 355 0.0 0.0 0.00 0.00 0.02 61 1008.5
20260904210731 86 266 0.0 0.0 0.00 0.00 0.02 61 1008.4
20260904210722 86 248 0.0 0.0 0.00 0.00 0.02 61 1008.3
20260904210631 86 267 0.0 0.0 0.00 0.00 0.02 61 1008.4
20260904210622 86 290 0.0 0.0 0.00 0.00 0.02 61 1008.3
20260904210615 86 267 0.0 0.0 0.00 0.00 0.02 61 1008.4
20260904210606 86 236 0.0 0.0 0.00 0.00 0.02 61 1008.3
20260904210530 86 267 0.0 0.0 0.00 0.02 0.02 61 1008.3
20260904210347 86 257 0.0 0.0 0.00 0.00 0.02 62 1008.3
20260904210030 86 260 0.0 0.0 0.00 0.02 0.02 61 1008.3
20260904205927 86 260 0.0 0.0 0.00 0.00 0.02 60 1008.3
20260904205858 86 260 0.0 0.0 0.00 0.00 0.02 60 1008.3
20260904205826 86 260 0.0 0.0 0.00 0.00 0.02 60 1008.3
20260904205725 86 260 0.0 0.0 0.00 0.00 0.02 59 1008.3
20260904205623 86 294 0.0 0.0 0.00 0.00 0.02 59 1008.4
20260904205538 86 266 0.0 0.0 0.00 0.00 0.02 59 1008.4
20260904205532 86 251 0.0 0.0 0.00 0.00 0.02 60 1008.3
20260904205530 86 252 0.0 0.0 0.00 0.02 0.02 60 1008.3
20260904205358 86 266 0.0 0.0 0.00 0.00 0.02 59 1008.3
20260904205345 86 268 0.0 0.0 0.00 0.00 0.02 59 1008.3
20260904205231 86 251 0.0 0.0 0.00 0.00 0.02 60 1008.3
20260904205036 87 288 0.0 0.0 0.00 0.00 0.02 59 1008.3
20260904205031 87 270 0.0 0.0 0.00 0.00 0.02 58 1008.3
20260904204856 87 268 0.0 0.0 0.00 0.00 0.02 59 1008.2
20260904204821 87 266 0.0 0.0 0.00 0.00 0.02 59 1008.2
20260904204753 87 295 0.0 0.0 0.00 0.00 0.02 58 1008.2
20260904204749 87 266 0.0 0.0 0.00 0.00 0.02 59 1008.2
20260904204745 87 289 0.0 0.0 0.00 0.00 0.02 60 1008.1
20260904204739 87 265 0.0 0.0 0.00 0.00 0.02 59 1008.3
20260904204530 87 265 0.0 0.0 0.00 0.02 0.02 59 1008.1
20260904204503 87 292 0.0 0.0 0.00 0.00 0.02 60 1008.1
20260904204333 87 319 0.0 0.0 0.00 0.00 0.02 58 1008.1
20260904204328 87 317 0.0 0.0 0.00 0.00 0.02 61 1008.1
20260904204119 87 320 0.0 0.0 0.00 0.00 0.02 59 1008.1
20260904204045 87 320 0.0 0.0 0.00 0.02 0.02 59 1008.2
20260904204018 87 320 0.0 0.0 0.00 0.00 0.02 59 1008.2
20260904203917 87 320 0.0 0.0 0.00 0.00 0.02 58 1008.2
20260904203856 87 320 0.0 0.0 0.00 0.00 0.02 58 1008.2
20260904203817 87 320 0.0 0.0 0.00 0.00 0.02 57 1008.2
20260904203716 87 320 0.0 0.0 0.00 0.00 0.02 57 1008.2
20260904203616 87 311 0.0 0.0 0.00 0.00 0.02 57 1008.1
20260904203545 87 311 0.0 0.0 0.00 0.02 0.02 58 1008.1
20260904203516 87 311 0.0 0.0 0.00 0.00 0.02 58 1008.1
20260904203443 87 329 0.0 0.0 0.00 0.00 0.02 59 1008.1
20260904203436 87 233 0.0 0.0 0.00 0.00 0.02 59 1008.0
20260904203324 87 295 0.0 0.0 0.00 0.00 0.02 59 1008.0
20260904203115 87 270 0.0 0.0 0.00 0.00 0.02 58 1008.0
20260904203030 87 270 0.0 0.0 0.00 0.02 0.02 59 1008.0
20260904203014 87 270 0.0 0.0 0.00 0.00 0.02 58 1008.0
20260904202914 87 269 0.0 0.0 0.00 0.00 0.02 59 1008.0
20260904202828 87 269 0.0 0.0 0.00 0.00 0.02 58 1008.2
20260904202822 87 269 0.0 0.0 0.00 0.00 0.02 59 1008.1
20260904202613 87 269 0.0 0.0 0.00 0.00 0.02 58 1008.2
20260904202530 87 269 0.0 0.0 0.00 0.02 0.02 57 1008.2
20260904202512 87 268 0.0 0.0 0.00 0.00 0.02 57 1008.3
20260904202412 87 278 0.0 0.0 0.00 0.00 0.02 58 1008.2
20260904202351 87 278 0.0 0.0 0.00 0.00 0.02 58 1008.2
20260904202313 87 277 0.0 0.0 0.00 0.00 0.02 57 1008.2
20260904202225 87 296 0.0 0.0 0.00 0.00 0.02 58 1008.3
20260904202220 87 279 0.0 0.0 0.00 0.00 0.02 58 1008.2
20260904202030 87 284 0.0 0.0 0.00 0.02 0.02 59 1008.3
20260904202010 87 284 0.0 0.0 0.00 0.00 0.02 59 1008.3
20260904201910 87 285 0.0 0.0 0.00 0.00 0.02 57 1008.3
20260904201850 87 285 0.0 0.0 0.00 0.00 0.02 58 1008.3
20260904201810 87 321 0.0 0.0 0.00 0.00 0.02 59 1008.3
20260904201709 87 267 0.0 0.0 0.00 0.00 0.02 59 1008.3
20260904201610 87 263 0.0 0.0 0.00 0.00 0.02 60 1008.3
20260904201545 87 292 0.0 0.0 0.00 0.02 0.02 61 1008.3
20260904201508 87 292 0.0 0.0 0.00 0.00 0.02 61 1008.3
20260904201408 87 292 0.0 0.0 0.00 0.00 0.02 61 1008.3
20260904201348 87 292 0.0 0.0 0.00 0.00 0.02 61 1008.3
20260904201308 87 292 0.0 0.0 0.00 0.00 0.02 62 1008.3
20260904201207 87 292 0.0 0.0 0.00 0.00 0.02 62 1008.3
20260904201106 87 292 0.0 0.0 0.00 0.00 0.02 60 1008.4
20260904201045 87 292 0.0 0.0 0.00 0.02 0.02 61 1008.4
20260904201005 87 292 0.0 0.0 0.00 0.00 0.02 61 1008.4
20260904200905 87 292 0.0 0.0 0.00 0.00 0.02 60 1008.5
20260904200849 87 292 0.0 0.0 0.00 0.00 0.02 61 1008.5
20260904200804 87 292 0.0 0.0 0.00 0.00 0.02 61 1008.5
20260904200706 87 292 0.0 0.0 0.00 0.00 0.02 60 1008.5
20260904200659 87 309 0.0 0.0 0.00 0.00 0.02 59 1008.5
20260904200655 87 271 0.0 0.0 0.00 0.00 0.02 60 1008.6
20260904200651 87 240 0.0 0.0 0.00 0.00 0.02 60 1008.6
20260904200644 87 295 0.0 0.0 0.00 0.00 0.02 59 1008.5
20260904200635 87 296 0.0 0.0 0.00 0.00 0.02 59 1008.6
20260904200530 87 296 0.0 0.0 0.00 0.02 0.02 59 1008.6
20260904200118 87 291 0.0 0.0 0.00 0.00 0.02 59 1008.6
20260904200113 87 246 0.0 0.0 0.00 0.00 0.02 58 1008.7
20260904200032 87 278 0.0 0.0 0.00 0.02 0.02 59 1008.6
20260904195844 87 261 0.0 0.0 0.00 0.00 0.02 60 1008.6
20260904195759 87 264 0.0 0.0 0.00 0.00 0.02 60 1008.6
20260904195659 87 305 0.0 0.0 0.00 0.00 0.02 60 1008.5
20260904195652 87 266 0.0 0.0 0.00 0.00 0.02 60 1008.5
20260904195645 87 265 0.0 0.0 0.00 0.00 0.02 61 1008.6
20260904195530 87 265 0.0 0.0 0.00 0.02 0.02 60 1008.5
20260904195424 87 261 0.0 0.0 0.00 0.00 0.02 60 1008.6
20260904195419 87 266 0.0 0.0 0.00 0.00 0.02 59 1008.6
20260904195412 87 266 0.0 0.0 0.00 0.00 0.02 59 1008.6
20260904195054 87 261 0.0 0.0 0.00 0.00 0.02 61 1008.6
20260904195030 87 261 0.0 0.0 0.00 0.02 0.02 61 1008.6
20260904194953 87 261 0.0 0.0 0.00 0.00 0.02 60 1008.6
20260904194853 87 261 0.0 0.0 0.00 0.00 0.02 60 1008.6
20260904194840 87 261 0.0 0.0 0.00 0.00 0.02 60 1008.6
20260904194752 87 261 0.0 0.0 0.00 0.00 0.02 59 1008.7
20260904194652 87 264 0.0 0.0 0.00 0.00 0.02 60 1008.7
20260904194605 87 282 0.0 0.0 0.00 0.00 0.02 61 1008.7
20260904194600 87 273 0.0 0.0 0.00 0.00 0.02 60 1008.8
20260904194530 87 282 0.0 0.0 0.00 0.02 0.02 60 1008.7
20260904194418 87 282 0.0 0.0 0.00 0.00 0.02 61 1008.7
20260904194412 87 283 0.0 0.0 0.00 0.00 0.02 61 1008.7
20260904194256 87 283 0.0 0.0 0.00 0.00 0.02 58 1008.8
20260904194251 87 283 0.0 0.0 0.00 0.00 0.02 60 1008.8
20260904194242 87 283 0.0 0.0 0.00 0.00 0.02 59 1008.8
20260904194124 87 285 0.0 0.0 0.00 0.00 0.02 58 1008.8
20260904194030 87 285 0.0 0.0 0.00 0.02 0.02 59 1008.8
20260904193756 87 298 0.0 0.0 0.00 0.00 0.02 57 1008.8
20260904193559 87 306 0.0 0.0 0.00 0.00 0.02 59 1008.9
20260904193546 87 323 0.0 0.0 0.00 0.00 0.02 59 1008.9
20260904193530 88 325 0.0 0.0 0.00 0.02 0.02 59 1008.9
20260904193456 87 325 0.0 0.0 0.00 0.00 0.02 59 1008.9
20260904193446 87 306 0.0 0.0 0.00 0.00 0.02 59 1008.9
20260904193301 87 307 0.0 0.0 0.00 0.00 0.02 58 1009.0
20260904193256 87 306 0.0 0.0 0.00 0.00 0.02 59 1009.0
20260904193132 88 314 0.0 0.0 0.00 0.00 0.02 59 1009.1
20260904193128 88 315 0.0 0.0 0.00 0.00 0.02 58 1009.1
20260904193124 88 294 0.0 0.0 0.00 0.00 0.02 60 1009.1
20260904193117 87 309 0.0 0.0 0.00 0.00 0.02 58 1009.1
20260904193108 88 283 0.0 0.0 0.00 0.00 0.02 58 1009.1
20260904193031 88 288 0.0 0.0 0.00 0.02 0.02 58 1009.1
20260904192644 87 262 0.0 0.0 0.00 0.00 0.02 59 1009.1
20260904192544 87 261 0.0 0.0 0.00 0.00 0.02 59 1009.0
20260904192530 88 302 0.0 0.0 0.00 0.02 0.02 57 1009.0
20260904192517 87 316 0.0 0.0 0.00 0.00 0.02 58 1009.0
20260904192511 87 321 0.0 0.0 0.00 0.00 0.02 59 1009.0
20260904192506 87 302 0.0 0.0 0.00 0.00 0.02 57 1009.0
20260904192350 87 316 0.0 0.0 0.00 0.00 0.02 58 1009.0
20260904192156 87 316 0.0 0.0 0.00 0.00 0.02 59 1009.0
20260904192150 87 253 0.0 0.0 0.00 0.00 0.02 59 1009.0
20260904192030 88 300 0.0 0.0 0.00 0.02 0.02 59 1009.1
20260904191959 87 303 0.0 0.0 0.00 0.00 0.02 58 1009.1
20260904191954 87 301 0.0 0.0 0.00 0.00 0.02 59 1009.1
20260904191838 87 303 0.0 0.0 0.00 0.00 0.02 58 1009.1
20260904191740 87 303 0.0 0.0 0.00 0.00 0.02 58 1009.1
20260904191640 87 321 0.0 0.0 0.00 0.00 0.02 57 1009.0
20260904191607 88 267 0.0 0.0 0.00 0.00 0.02 57 1009.0
20260904191530 88 267 0.0 0.0 0.00 0.02 0.02 57 1009.0